Laatste waarneming: 02:43
Temperatuur:7,7°C
Dauwpunt:6,5°C
Rel. vocht:92,0%
Natte-bol:7,3°C
Wind (gem. 10 min.):1,2 m/s
Wind (max. 10 min.): m/s
Windrichting:107°
Neerslagsom:0,0 mm
Neerslagintensiteit:0,0 mm/u
Luchtdruk:999,3 hPa
Straling:0,0 W/m2
 
Maximumtemp.:8,8°C (00:00)
Minimumtemp.:7,6°C (02:24)
Hoogste windstoot:- m/s (19:35)


Bekijk de verwachting.

Bekijk het Tabeloverzicht.
Bekijk het Maandoverzicht.
Dagtabel
Tijd Temp. Dauwp. Natte-bol Rel. Hum. Windsnelh. Windricht. Windstoot Neerslag Straling Luchtdruk
 
02:43 7,7 6,5 7,3 92,0 1,2 107 - 0,0 0 999,3
02:42 7,6 6,4 7,2 92,0 1,2 107 - 0,0 0 999,3
02:41 7,6 6,4 7,2 92,0 1,0 108 - 0,0 0 999,3
02:40 7,6 6,4 7,2 92,0 1,0 108 - 0,0 0 999,3
02:39 7,6 6,4 7,2 92,0 1,2 109 - 0,0 0 999,3
02:38 7,6 6,4 7,2 92,0 1,2 108 - 0,0 0 999,3
02:37 7,6 6,4 7,2 92,0 1,3 108 - 0,0 0 999,3
02:36 7,6 6,4 7,2 92,0 1,4 110 - 0,0 0 999,3
02:35 7,6 6,4 7,2 92,0 1,3 112 - 0,0 0 999,3
02:34 7,6 6,4 7,2 92,0 1,1 112 - 0,0 0 999,3
02:33 7,6 6,4 7,2 92,0 0,9 111 - 0,0 0 999,3
02:32 7,6 6,4 7,2 92,0 0,8 112 - 0,0 0 999,3
02:31 7,6 6,4 7,2 92,0 0,9 111 - 0,0 0 999,3
02:30 7,6 6,4 7,2 92,0 0,9 110 - 0,0 0 999,3
02:29 7,7 6,5 7,3 92,0 0,9 107 - 0,0 0 999,3
02:28 7,7 6,5 7,3 92,0 0,8 106 - 0,0 0 999,3
02:27 7,7 6,5 7,3 92,0 0,8 107 - 0,0 0 999,3
02:26 7,7 6,5 7,3 92,0 0,8 108 - 0,0 0 999,3
02:25 7,6 6,4 7,2 92,0 0,8 111 - 0,0 0 999,3
02:24 7,6 6,4 7,2 92,0 0,7 113 - 0,0 0 999,3
02:23 7,7 6,5 7,3 92,0 0,7 114 - 0,0 0 999,3
02:22 7,7 6,5 7,3 92,0 0,7 114 - 0,0 0 999,3
02:21 7,7 6,5 7,3 92,0 0,7 113 - 0,0 0 999,3
02:20 7,7 6,5 7,3 92,0 0,8 110 - 0,0 0 999,3
02:19 7,7 6,5 7,3 92,0 0,9 108 - 0,0 0 999,3
02:18 7,7 6,5 7,3 92,0 0,8 105 - 0,0 0 999,3
02:17 7,7 6,5 7,3 92,0 0,7 104 - 0,0 0 999,3
02:16 7,7 6,5 7,3 92,0 0,7 103 - 0,0 0 999,3
02:15 7,8 6,6 7,4 92,0 0,9 104 - 0,0 0 999,4
02:14 7,8 6,6 7,4 92,0 1,1 105 - 0,0 0 999,4
02:13 7,8 6,6 7,4 92,0 1,2 106 - 0,0 0 999,4
02:12 7,8 6,6 7,4 92,0 1,2 107 - 0,0 0 999,3
02:11 7,8 6,6 7,4 92,0 1,4 107 - 0,0 0 999,3
02:10 7,8 6,6 7,4 92,0 1,5 107 - 0,0 0 999,4
02:09 7,8 6,6 7,4 92,0 1,5 106 - 0,0 0 999,4
02:08 7,8 6,6 7,4 92,0 1,4 106 - 0,0 0 999,3
02:07 7,8 6,6 7,4 92,0 1,4 105 - 0,0 0 999,4
02:06 7,8 6,6 7,4 92,0 1,5 105 - 0,0 0 999,3
02:05 7,8 6,6 7,4 92,0 1,5 105 - 0,0 0 999,4
02:04 7,8 6,6 7,4 92,0 1,5 105 - 0,0 0 999,3
02:03 7,8 6,6 7,4 92,0 1,5 106 - 0,0 0 999,3
02:02 7,8 6,6 7,4 92,0 1,4 106 - 0,0 0 999,3
02:01 7,8 6,6 7,4 92,0 1,4 105 - 0,0 0 999,3
02:00 7,8 6,6 7,4 92,0 1,4 103 - 0,0 0 999,3
 
01:59 7,8 6,6 7,4 92,0 1,2 101 - 0,0 0 999,3
01:58 7,8 6,6 7,4 92,0 1,0 99 - 0,0 0 999,3
01:57 7,8 6,6 7,4 92,0 0,9 98 - 0,0 0 999,3
01:56 7,8 6,6 7,4 92,0 0,9 99 - 0,0 0 999,3
01:55 7,8 6,6 7,4 92,0 0,7 101 - 0,0 0 999,3
01:54 7,8 6,6 7,4 92,0 0,6 103 - 0,0 0 999,3
01:53 7,8 6,5 7,4 91,2 0,8 103 - 0,0 0 999,3
01:52 7,8 6,5 7,4 91,7 1,0 104 - 0,0 0 999,4
01:51 7,9 6,5 7,5 91,0 1,1 104 - 0,0 0 999,3
01:50 7,9 6,5 7,4 90,7 1,1 103 - 0,0 0 999,4
01:49 7,9 6,5 7,4 90,7 1,1 103 - 0,0 0 999,4
01:48 7,9 6,5 7,4 90,7 1,0 104 - 0,0 0 999,4
01:47 7,9 6,5 7,4 90,7 1,0 106 - 0,0 0 999,3
01:46 7,9 6,5 7,4 90,7 0,9 107 - 0,0 0 999,3
01:45 7,9 6,5 7,4 90,7 0,9 107 - 0,0 0 999,3
01:44 7,9 6,5 7,5 91,1 0,6 106 - 0,0 0 999,3
01:43 7,9 6,7 7,5 92,0 0,5 104 - 0,0 0 999,3
01:42 8,0 6,8 7,6 92,0 0,6 103 - 0,0 0 999,3
01:41 8,0 6,8 7,6 92,0 0,7 102 - 0,0 0 999,2
01:40 8,0 6,8 7,6 92,0 0,8 103 - 0,0 0 999,3
01:39 8,0 6,8 7,6 92,0 0,8 104 - 0,0 0 999,3
01:38 8,1 6,9 7,8 92,0 0,6 106 - 0,0 0 999,3
01:37 8,1 6,9 7,8 92,0 0,5 108 - 0,0 0 999,3
01:36 8,1 6,9 7,8 92,0 0,7 109 - 0,0 0 999,3
01:35 8,1 6,9 7,8 92,0 0,8 110 - 0,0 0 999,3
01:34 8,1 6,9 7,8 92,0 0,9 110 - 0,0 0 999,3
01:33 8,1 6,9 7,8 92,0 0,9 110 - 0,0 0 999,3
01:32 8,1 6,9 7,8 92,0 0,9 111 - 0,0 0 999,3
01:31 8,1 6,9 7,8 92,0 0,9 111 - 0,0 0 999,3
01:30 8,1 6,9 7,8 92,0 1,0 111 - 0,0 0 999,3
01:29 8,1 6,9 7,8 92,0 1,2 111 - 0,0 0 999,3
01:28 8,1 6,9 7,8 92,0 1,1 111 - 0,0 0 999,3
01:27 8,1 6,9 7,8 92,0 1,0 112 - 0,0 0 999,3
01:26 8,1 6,9 7,8 92,0 0,9 114 - 0,0 0 999,3
01:25 8,1 6,8 7,7 91,5 0,9 116 - 0,0 0 999,3
01:24 8,1 6,7 7,6 90,7 0,7 119 - 0,0 0 999,3
01:23 8,1 6,7 7,6 90,7 0,7 120 - 0,0 0 999,3
01:22 8,1 6,7 7,6 90,7 0,7 122 - 0,0 0 999,3
01:21 8,1 6,7 7,6 90,7 0,8 123 - 0,0 0 999,3
01:20 8,1 6,7 7,6 90,7 0,7 123 - 0,0 0 999,3
01:19 8,1 6,7 7,6 90,7 0,7 123 - 0,0 0 999,3
01:18 8,1 6,7 7,6 90,7 0,7 123 - 0,0 0 999,3
01:17 8,1 6,7 7,6 90,7 0,6 124 - 0,0 0 999,3
01:16 8,1 6,7 7,6 90,7 0,5 126 - 0,0 0 999,3
01:15 8,1 6,7 7,6 90,7 0,5 126 - 0,0 0 999,3
01:14 8,1 6,7 7,6 90,7 0,5 125 - 0,0 0 999,3
01:13 8,1 6,7 7,6 90,7 0,6 122 - 0,0 0 999,3
01:12 8,1 6,7 7,6 90,7 0,6 120 - 0,0 0 999,3
01:11 8,1 - - - - - - - - -
01:10 8,1 6,7 7,6 90,7 0,8 116 - 0,0 0 999,3
01:09 8,2 6,8 7,8 90,7 0,8 115 - 0,0 0 999,3
01:08 8,2 6,8 7,8 90,7 0,8 114 - 0,0 0 999,3
01:07 8,2 6,8 7,8 90,7 0,8 112 - 0,0 0 999,3
01:06 8,2 6,8 7,8 90,7 0,9 111 - 0,0 0 999,3
01:05 8,2 6,8 7,8 90,7 0,9 111 - 0,0 0 999,3
01:04 8,2 6,8 7,8 90,7 0,8 110 - 0,0 0 999,3
01:03 8,2 6,8 7,8 90,7 0,5 108 - 0,0 0 999,3
01:02 8,2 6,8 7,8 90,7 0,5 108 - 0,0 0 999,3
01:01 8,2 6,8 7,8 90,7 0,6 108 - 0,0 0 999,3
01:00 8,2 6,8 7,8 90,7 0,7 110 - 0,0 0 999,2
 
00:59 8,2 6,8 7,8 90,7 0,6 109 - 0,0 0 999,3
00:58 8,3 6,9 7,9 90,7 0,5 108 - 0,0 0 999,3
00:57 8,3 6,9 7,9 90,7 0,6 106 - 0,0 0 999,3
00:56 8,3 6,9 7,9 90,7 0,7 106 - 0,0 0 999,2
00:55 8,3 6,9 7,9 90,7 0,9 107 - 0,0 0 999,3
00:54 8,3 6,9 7,9 90,7 1,0 106 - 0,0 0 999,3
00:53 8,3 6,9 7,9 90,7 1,1 105 - 0,0 0 999,3
00:52 8,3 6,9 7,9 90,7 0,9 105 - 0,0 0 999,2
00:51 8,3 6,9 7,9 90,7 0,7 105 - 0,0 0 999,2
00:50 8,3 6,9 7,9 90,7 0,4 104 - 0,0 0 999,2
00:49 8,3 6,9 7,9 90,7 0,2 103 - 0,0 0 999,2
00:48 8,3 6,9 7,9 90,7 0,2 104 - 0,0 0 999,2
00:47 8,3 6,7 7,8 89,8 0,3 107 - 0,0 0 999,2
00:46 8,4 6,8 7,9 89,5 0,3 111 - 0,0 0 999,2
00:45 8,4 6,8 7,9 89,5 0,4 115 - 0,0 0 999,1
00:44 8,4 6,8 7,9 89,5 0,5 118 - 0,0 0 999,2
00:43 8,4 6,8 7,9 89,5 0,5 117 - 0,0 0 999,1
00:42 8,4 6,8 7,9 89,5 0,6 117 - 0,0 0 999,1
00:41 8,4 6,9 7,9 90,5 0,7 116 - 0,0 0 999,2
00:40 8,4 6,8 7,9 89,6 0,8 114 - 0,0 0 999,2
00:39 8,4 6,8 7,9 89,5 0,7 111 - 0,0 0 999,1
00:38 8,5 6,9 8,0 89,5 0,7 109 - 0,0 0 999,1
00:37 8,5 6,9 8,0 89,5 0,6 107 - 0,0 0 999,1
00:36 8,5 6,9 8,0 89,5 0,7 107 - 0,0 0 999,1
00:35 8,5 6,9 8,0 89,5 0,7 106 - 0,0 0 999,1
00:34 8,5 6,9 8,0 89,5 0,6 105 - 0,0 0 999,1
00:33 8,6 7,0 8,1 89,5 0,5 105 - 0,0 0 999,1
00:32 8,6 7,0 8,1 89,5 0,3 105 - 0,0 0 999,1
00:31 8,6 7,0 8,1 89,5 0,4 105 - 0,0 0 999,1
00:29 8,6 7,0 8,1 89,5 0,4 106 - 0,0 0 999,1
00:28 8,6 7,0 8,1 89,5 0,2 107 - 0,0 0 999,1
00:27 8,7 7,1 8,2 89,5 0,2 107 - 0,0 0 999,1
00:26 8,7 7,1 8,2 89,5 0,3 108 - 0,0 0 999,1
00:25 8,7 7,1 8,2 89,5 0,5 108 - 0,0 0 999,1
00:24 8,7 7,1 8,2 89,5 0,7 108 - 0,0 0 999,1
00:23 8,7 7,1 8,2 89,5 1,0 109 - 0,0 0 999,1
00:22 8,7 7,1 8,2 89,5 1,2 110 - 0,0 0 999,1
00:21 8,7 7,1 8,2 89,5 1,1 111 - 0,0 0 999,1
00:20 8,7 7,1 8,2 89,5 0,9 113 - 0,0 0 999,1
00:19 8,7 7,1 8,2 89,5 0,6 115 - 0,0 0 999,1
00:18 8,7 7,1 8,2 89,5 0,4 118 - 0,0 0 999,1
00:17 8,7 7,1 8,2 89,5 0,3 120 - 0,0 0 999,1
00:16 8,7 7,1 8,2 89,5 0,3 120 - 0,0 0 999,2
00:15 8,7 7,1 8,2 89,5 0,4 117 - 0,0 0 999,2
00:14 8,7 7,1 8,2 89,5 0,5 114 - 0,0 0 999,2
00:13 8,7 7,1 8,2 89,5 0,5 113 - 0,0 0 999,2
00:12 8,7 7,1 8,2 89,5 0,6 113 - 0,0 0 999,1
00:11 8,7 7,1 8,2 89,5 0,7 114 - 0,0 0 999,1
00:10 8,8 7,2 8,3 89,5 0,6 115 - 0,0 0 999,1
00:09 8,8 7,2 8,3 89,5 0,6 116 - 0,0 0 999,2
00:08 8,8 7,2 8,3 89,5 0,5 118 - 0,0 0 999,1
00:07 8,8 7,2 8,3 89,5 0,4 120 - 0,0 0 999,1
00:06 8,8 7,2 8,3 89,5 0,4 123 - 0,0 0 999,1
00:05 8,8 7,2 8,3 89,5 0,3 129 - 0,0 0 999,1
00:04 8,8 7,2 8,3 89,5 0,3 136 - 0,0 0 999,1
00:03 8,8 7,2 8,3 89,5 0,4 141 - 0,0 0 999,1
00:02 8,8 7,2 8,3 89,5 0,6 144 - 0,0 0 999,1
00:01 8,8 7,2 8,3 89,5 0,7 147 - 0,0 0 999,1
00:00 8,8 7,2 8,3 89,5 0,6 150 - 0,0 0 999,1
 
23:59 8,8 7,2 8,3 89,5 0,4 150 - 0,0 0 999,1
23:58 8,8 7,2 8,3 89,5 0,4 149 - 0,0 0 999,1
23:57 8,9 7,3 8,4 89,5 0,6 148 - 0,0 0 999,0
23:56 8,9 7,3 8,4 89,5 0,7 148 - 0,0 0 999,1
23:55 8,9 7,3 8,4 89,5 0,7 148 - 0,0 0 999,1
23:54 8,9 7,3 8,4 89,5 0,5 146 - 0,0 0 999,0
23:53 8,9 7,3 8,4 89,5 0,5 143 - 0,0 0 999,0
23:52 8,9 7,3 8,4 89,5 0,7 145 - 0,0 0 999,0
23:51 8,9 7,3 8,4 89,5 1,0 147 - 0,0 0 999,0
23:50 8,9 7,3 8,4 89,5 0,8 147 - 0,0 0 999,1
23:48 8,9 7,3 8,4 89,5 0,6 145 - 0,0 0 999,1
23:47 8,9 7,3 8,4 89,5 0,6 145 - 0,0 0 999,1
23:46 8,9 7,3 8,4 89,5 0,9 147 - 0,0 0 999,0
23:45 8,9 7,3 8,4 89,5 0,8 145 - 0,0 0 999,1
23:44 8,9 7,3 8,4 89,5 0,8 141 - 0,0 0 999,0
23:43 8,9 7,3 8,4 89,5 0,7 139 - 0,0 0 999,1
23:42 8,9 7,3 8,4 89,5 0,6 140 - 0,0 0 999,1
23:41 8,9 7,3 8,4 89,5 0,4 139 - 0,0 0 999,1
23:40 8,9 7,3 8,4 89,5 0,2 134 - 0,0 0 999,0
23:39 8,9 7,3 8,4 89,5 0,2 128 - 0,0 0 999,1
23:38 8,9 7,3 8,4 89,5 0,5 126 - 0,0 0 999,0
23:37 8,9 7,3 8,4 89,5 0,8 127 - 0,0 0 999,0
23:36 8,9 7,3 8,4 89,5 0,9 130 - 0,0 0 999,0
23:35 8,9 7,3 8,4 89,5 0,6 133 - 0,0 0 999,0
23:34 8,9 7,3 8,4 89,5 0,3 137 - 0,0 0 999,0
23:33 8,9 7,3 8,4 89,5 0,4 142 - 0,0 0 999,0
23:32 8,9 7,3 8,4 89,5 0,6 145 - 0,0 0 998,9
23:31 8,9 7,3 8,4 89,5 0,7 144 - 0,0 0 999,0
23:30 8,9 7,3 8,4 89,5 0,5 139 - 0,0 0 998,9
23:29 8,9 7,3 8,4 89,5 0,4 136 - 0,0 0 998,9
23:28 8,9 7,3 8,4 89,5 0,5 135 - 0,0 0 998,9
23:27 8,9 7,3 8,4 89,5 0,4 137 - 0,0 0 998,8
23:26 8,9 7,3 8,4 89,5 0,2 142 - 0,0 0 998,8
23:25 8,9 7,3 8,4 89,5 0,1 148 - 0,0 0 998,8
23:24 8,9 7,3 8,4 89,5 0,2 154 - 0,0 0 998,8
23:23 8,9 7,3 8,4 89,5 0,4 153 - 0,0 0 998,8
23:22 8,9 7,3 8,4 89,5 0,6 150 - 0,0 0 998,8
23:21 8,9 7,3 8,4 89,5 0,6 145 - 0,0 0 998,8
23:20 8,9 7,3 8,4 89,5 0,6 141 - 0,0 0 998,8
23:19 8,9 7,3 8,4 89,5 0,6 136 - 0,0 0 998,8
23:18 8,9 7,3 8,4 89,5 0,6 132 - 0,0 0 998,8
23:17 8,9 7,3 8,4 89,5 0,7 130 - 0,0 0 998,8
23:16 8,9 7,3 8,4 89,5 0,8 130 - 0,0 0 998,8
23:15 8,9 7,2 8,3 88,9 0,7 130 - 0,0 0 998,8
23:14 8,9 7,1 8,3 88,3 0,6 129 - 0,0 0 998,8
23:13 8,9 7,1 8,3 88,3 0,4 126 - 0,0 0 998,8
23:12 8,9 7,1 8,3 88,3 0,5 123 - 0,0 0 998,8
23:11 8,9 7,2 8,3 88,8 0,7 119 - 0,0 0 998,8
23:10 8,9 7,2 8,3 89,0 0,9 115 - 0,0 0 998,7
23:09 8,9 7,1 8,3 88,3 0,9 114 - 0,0 0 998,7
23:08 8,9 7,1 8,3 88,3 0,6 116 - 0,0 0 998,7
23:07 8,9 7,1 8,3 88,3 0,2 124 - 0,0 0 998,8
23:06 9,0 7,2 8,4 88,3 0,2 141 - 0,0 0 998,8
23:05 9,0 7,2 8,4 88,3 0,4 156 - 0,0 0 998,8
23:04 9,0 7,2 8,4 88,3 0,7 164 - 0,0 0 998,8
23:03 9,0 7,2 8,4 88,3 0,8 166 - 0,0 0 998,8
23:02 9,1 7,3 8,5 88,3 0,7 164 - 0,0 0 998,8
23:01 9,1 7,3 8,5 88,3 0,5 160 - 0,0 0 998,8
23:00 9,1 7,3 8,5 88,3 0,5 152 - 0,0 0 998,7
 
22:59 9,1 7,3 8,5 88,3 0,6 143 - 0,0 0 998,7
22:58 9,1 7,3 8,5 88,3 0,6 138 - 0,0 0 998,7
22:57 9,1 7,3 8,5 88,3 0,7 135 - 0,0 0 998,7
22:56 9,2 7,4 8,6 88,3 0,7 138 - 0,0 0 998,7
22:55 9,2 7,4 8,6 88,3 0,6 146 - 0,0 0 998,7
22:54 9,2 7,4 8,6 88,3 0,4 152 - 0,0 0 998,7
22:53 9,2 7,4 8,6 88,3 0,5 150 - 0,0 0 998,7
22:52 9,2 7,4 8,6 88,3 0,6 143 - 0,0 0 998,6
22:51 9,2 7,4 8,6 88,3 0,8 133 - 0,0 0 998,6
22:50 9,2 7,4 8,6 88,3 1,1 122 - 0,0 0 998,6
22:49 9,2 7,4 8,6 88,3 1,3 115 - 0,0 0 998,6
22:48 9,2 7,4 8,6 88,3 1,3 110 - 0,0 0 998,6
22:47 9,2 7,4 8,6 88,3 1,1 107 - 0,0 0 998,6
22:46 9,2 7,4 8,6 88,3 1,0 105 - 0,0 0 998,6
22:45 9,2 7,2 8,5 87,6 1,2 105 - 0,0 0 998,6
22:44 9,3 7,3 8,6 87,1 1,4 104 - 0,0 0 998,6
22:43 9,3 7,3 8,6 87,1 1,4 103 - 0,0 0 998,6
22:42 9,3 7,3 8,6 87,1 1,4 105 - 0,0 0 998,6
22:41 9,3 7,3 8,6 87,1 1,3 108 - 0,0 0 998,6
22:40 9,3 7,3 8,6 87,1 1,1 113 - 0,0 0 998,5
22:39 9,3 7,3 8,6 87,1 1,0 117 - 0,0 0 998,5
22:38 9,3 7,3 8,6 87,1 0,9 121 - 0,0 0 998,5
22:37 9,3 7,3 8,6 87,1 0,6 124 - 0,0 0 998,5
22:36 9,4 7,4 8,7 87,1 0,5 125 - 0,0 0 998,5
22:35 9,4 7,4 8,7 87,1 0,6 122 - 0,0 0 998,5
22:34 9,4 7,4 8,7 87,1 0,6 119 - 0,0 0 998,5
22:33 9,4 7,4 8,7 87,1 0,7 116 - 0,0 0 998,5
22:32 9,4 7,4 8,7 87,1 1,0 114 - 0,0 0 998,5
22:31 9,4 7,4 8,7 87,1 0,9 112 - 0,0 0 998,5
22:30 9,4 7,4 8,7 87,1 0,6 112 - 0,0 0 998,4
22:29 9,5 7,4 8,7 86,7 0,5 111 - 0,0 0 998,4
22:28 9,5 7,3 8,7 85,9 0,4 111 - 0,0 0 998,5
22:27 9,5 7,3 8,7 85,9 0,3 117 - 0,0 0 998,5
22:26 9,5 7,3 8,7 85,9 0,2 129 - 0,0 0 998,4
22:25 9,5 7,3 8,7 85,9 0,1 137 - 0,0 0 998,4
22:24 9,6 7,4 8,8 85,9 0,2 135 - 0,0 0 998,4
22:23 9,6 7,4 8,8 85,9 0,4 125 - 0,0 0 998,4
22:22 9,6 7,4 8,8 85,9 0,5 119 - 0,0 0 998,4
22:21 9,6 7,4 8,8 85,9 0,6 116 - 0,0 0 998,4
22:20 9,6 7,4 8,8 85,9 0,7 116 - 0,0 0 998,4
22:19 9,6 7,4 8,8 85,9 0,6 116 - 0,0 0 998,4
22:18 9,6 7,4 8,8 85,9 0,6 117 - 0,0 0 998,4
22:17 9,6 7,4 8,8 85,9 0,8 119 - 0,0 0 998,4
22:16 9,6 7,4 8,8 85,9 0,8 123 - 0,0 0 998,4
22:15 9,7 7,5 8,9 85,9 0,6 128 - 0,0 0 998,4
22:14 9,7 7,5 8,9 85,9 0,5 129 - 0,0 0 998,4
22:13 9,7 7,3 8,7 84,8 0,6 127 - 0,0 0 998,4
22:12 9,8 7,4 8,8 84,8 0,6 125 - 0,0 0 998,4
22:11 9,8 7,4 8,8 84,8 0,5 123 - 0,0 0 998,3
22:10 9,8 7,4 8,8 84,8 0,5 122 - 0,0 0 998,3
22:09 9,9 7,5 8,9 84,8 0,5 121 - 0,0 0 998,3
22:08 9,9 7,5 8,9 84,8 0,6 122 - 0,0 0 998,3
22:07 10,0 7,6 9,0 84,8 0,6 123 - 0,0 0 998,3
22:06 10,0 7,6 9,0 84,8 0,5 123 - 0,0 0 998,3
22:05 10,1 7,5 9,1 84,2 0,5 121 - 0,0 0 998,3
22:04 10,1 7,4 9,0 83,6 0,7 119 - 0,0 0 998,3
22:03 10,1 7,4 9,0 83,6 0,8 121 - 0,0 0 998,3
22:02 10,2 7,5 9,1 83,6 0,7 126 - 0,0 0 998,3
22:01 10,2 7,5 9,1 83,6 0,5 134 - 0,0 0 998,3
22:00 10,2 7,5 9,1 83,6 0,4 149 - 0,0 0 998,3
 
21:59 10,2 7,5 9,1 83,6 0,3 167 - 0,0 0 998,3
21:58 10,3 7,6 9,2 83,6 0,4 181 - 0,0 0 998,3
21:57 10,3 7,6 9,2 83,6 0,4 186 - 0,0 0 998,3
21:56 10,3 7,6 9,2 83,6 0,4 187 - 0,0 0 998,3
21:55 10,3 7,6 9,2 83,4 0,4 186 - 0,0 0 998,3
21:54 10,4 7,5 9,2 82,4 0,4 185 - 0,0 0 998,3
21:53 10,4 7,5 9,2 82,4 0,3 183 - 0,0 0 998,3
21:52 10,5 7,6 9,3 82,4 0,3 181 - 0,0 0 998,3
21:51 10,5 7,6 9,3 82,4 0,3 180 - 0,0 0 998,3
21:50 10,6 7,7 9,4 82,4 0,3 178 - 0,0 0 998,3
21:49 10,6 7,7 9,4 82,4 0,2 177 - 0,0 0 998,3
21:48 10,7 7,7 9,5 82,0 0,2 176 - 0,0 0 998,3
21:47 10,7 7,6 9,4 81,3 0,1 176 - 0,0 0 998,2
21:46 10,7 7,6 9,4 81,3 0,2 175 - 0,0 0 998,3
21:45 10,8 7,7 9,5 81,3 0,2 175 - 0,0 0 998,3
21:44 10,8 7,7 9,5 81,3 0,1 175 - 0,0 0 998,3
21:43 10,9 7,8 9,6 81,3 0,1 175 - 0,0 0 998,3
21:42 10,9 7,8 9,6 81,3 0,2 173 - 0,0 0 998,3
21:41 11,0 7,9 9,7 81,3 0,2 170 - 0,0 0 998,2
21:40 11,0 7,8 9,6 80,5 0,2 167 - 0,0 0 998,2
21:39 11,1 7,8 9,7 80,1 0,3 165 - 0,0 0 998,3
21:38 11,1 7,8 9,7 80,1 0,6 166 - 0,0 0 998,3
21:37 11,2 7,9 9,8 80,1 0,7 168 - 0,0 0 998,3
21:36 11,3 7,9 9,8 79,6 0,7 170 - 0,0 0 998,2
21:35 11,3 7,8 9,8 79,0 0,4 173 - 0,0 0 998,2
21:34 11,4 7,9 9,9 79,0 0,2 183 - 0,0 0 998,2
21:33 11,4 7,9 9,9 79,0 0,1 201 - 0,0 0 998,2
21:32 11,4 7,9 9,9 79,0 0,2 215 - 0,0 0 998,2
21:31 11,4 7,9 9,9 79,0 0,4 220 - 0,0 0 998,2
21:30 11,4 7,8 9,8 78,4 0,8 220 - 0,0 0 998,2
21:29 11,5 7,8 9,9 77,9 1,2 219 - 0,0 0 998,2
21:28 11,5 7,8 9,9 77,9 1,5 217 - 0,0 0 998,2
21:27 11,6 7,9 9,9 77,9 1,6 215 - 0,0 0 998,2
21:26 11,6 7,9 9,9 77,9 1,4 213 - 0,0 0 998,2
21:25 11,7 8,0 10,0 77,9 0,9 210 - 0,0 0 998,2
21:24 11,7 8,0 10,0 77,9 0,6 205 - 0,0 0 998,2
21:23 11,7 7,8 10,0 77,2 0,6 202 - 0,0 0 998,2
21:22 11,7 7,8 9,9 76,7 0,9 204 - 0,0 0 998,2
21:21 11,8 7,9 10,0 76,7 1,4 207 - 0,0 0 998,2
21:20 11,8 7,9 10,0 76,7 1,6 210 - 0,0 0 998,2
21:19 11,8 7,9 10,0 76,7 1,4 213 - 0,0 0 998,2
21:18 11,9 7,9 10,1 76,7 0,9 217 - 0,0 0 998,2
21:17 11,9 7,9 10,1 76,7 0,6 219 - 0,0 0 998,2
21:16 12,0 8,0 10,2 76,7 0,5 221 - 0,0 0 998,2
21:15 12,0 7,9 10,1 75,7 0,5 222 - 0,0 0 998,2
21:14 12,1 7,9 10,2 75,6 1,1 226 - 0,0 0 998,2
21:13 12,1 7,8 10,2 75,2 1,9 231 - 0,0 0 998,2
21:12 12,1 7,6 10,0 74,0 2,8 236 - 0,0 0 998,1
21:11 12,1 7,6 10,0 74,2 3,3 241 - 0,0 0 998,1
21:10 12,2 7,8 10,2 74,5 3,8 245 - 0,0 0 998,1
21:09 12,2 8,0 10,3 75,4 4,1 246 - 0,0 0 998,1
21:08 12,2 7,9 10,2 74,9 4,2 246 - 0,0 0 998,1
21:07 12,2 7,9 10,2 75,2 4,0 244 - 0,0 0 998,1
21:06 12,2 7,8 10,2 74,5 3,8 243 - 0,0 0 998,1
21:05 12,2 7,7 10,1 73,8 4,0 243 - 0,0 0 998,1
21:04 12,2 7,8 10,2 74,4 4,1 243 - 0,0 0 998,1
21:03 12,2 8,0 10,3 75,4 4,2 245 - 0,0 0 998,1
21:02 12,2 7,8 10,2 74,5 4,2 248 - 0,0 0 998,1
21:01 12,2 7,7 10,1 74,1 4,5 250 - 0,0 0 998,1
21:00 12,2 7,7 10,1 74,1 4,7 249 - 0,0 0 998,1
 
20:59 12,2 7,8 10,2 74,5 4,5 246 - 0,0 0 998,1
20:58 12,2 7,6 10,1 73,7 4,4 242 - 0,0 0 998,1
20:57 12,1 7,9 10,2 75,4 4,3 238 - 0,0 0 998,1
20:56 12,1 7,8 10,1 75,0 4,4 236 - 0,0 0 998,1
20:55 12,1 7,9 10,2 75,6 4,1 235 - 0,0 0 998,1
20:54 12,0 7,7 10,0 75,0 4,2 237 - 0,0 0 998,1
20:53 11,9 7,7 10,0 75,4 4,3 240 - 0,0 0 998,1
20:52 11,9 7,9 10,1 76,7 4,4 245 - 0,0 0 998,1
20:51 11,8 8,1 10,1 77,9 3,8 249 - 0,0 0 998,1
20:50 11,8 8,1 10,1 77,9 3,2 250 - 0,0 0 998,1
20:49 11,8 8,0 10,1 77,3 2,8 249 - 0,0 0 998,2
20:48 11,8 7,9 10,0 76,7 2,6 247 - 0,0 0 998,2
20:47 11,9 7,9 10,1 76,7 2,4 243 - 0,0 0 998,1
20:46 11,9 7,9 10,1 76,7 2,3 238 - 0,0 0 998,1
20:45 12,0 8,0 10,2 76,7 2,2 233 - 0,0 0 998,1
20:44 12,0 8,0 10,2 76,4 2,2 230 - 0,0 0 998,1
20:43 12,1 7,9 10,2 75,6 2,1 232 - 0,0 0 998,1
20:42 12,1 7,9 10,2 75,6 1,9 234 - 0,0 0 998,1
20:41 12,2 8,0 10,3 75,6 2,1 236 - 0,0 0 998,1
20:40 12,2 7,8 10,2 74,6 2,7 238 - 0,0 0 998,0
20:39 12,2 7,8 10,2 74,5 3,3 239 - 0,0 0 998,1
20:38 12,2 7,9 10,2 75,0 3,8 237 - 0,0 0 998,1
20:37 12,2 7,8 10,2 74,3 4,1 235 - 0,0 0 998,0
20:36 12,2 7,6 10,1 73,4 4,4 233 - 0,0 0 998,0
20:35 12,2 7,6 10,1 73,5 4,7 231 - 0,0 0 998,0
20:34 12,2 7,8 10,2 74,6 4,8 230 - 0,0 0 998,0
20:33 12,2 8,1 10,3 76,0 4,6 229 - 0,0 0 998,0
20:32 12,3 8,2 10,4 76,1 4,3 230 - 0,0 0 998,0
20:31 12,2 7,9 10,2 74,9 4,2 229 - 0,0 0 997,9
20:30 12,2 7,8 10,2 74,5 4,2 229 - 0,0 0 997,9
20:29 12,2 7,6 10,0 73,3 4,2 231 - 0,0 0 997,9
20:28 12,2 7,4 10,0 72,6 4,4 233 - 0,0 0 997,9
20:27 12,2 7,6 10,1 73,4 4,8 234 - 0,0 0 997,9
20:26 12,2 7,6 10,1 73,4 4,9 232 - 0,0 0 997,9
20:25 12,2 7,5 10,0 72,8 4,5 233 - 0,0 0 997,9
20:24 12,1 7,1 9,8 71,6 4,5 232 - 0,0 0 997,9
20:23 12,1 7,6 10,0 74,0 4,8 232 - 0,0 0 997,9
20:22 12,1 7,5 10,0 73,5 4,9 233 - 0,0 0 997,8
20:21 12,1 7,6 10,0 74,1 4,9 237 - 0,0 0 997,8
20:20 12,1 7,8 10,2 75,2 4,9 241 - 0,0 0 997,8
20:19 12,1 7,7 10,1 74,5 5,1 242 - 0,0 0 997,8
20:18 12,1 7,7 10,1 74,5 5,3 241 - 0,0 0 997,8
20:17 12,1 7,9 10,2 75,5 4,6 240 - 0,0 0 997,8
20:16 12,1 7,9 10,2 75,4 4,3 236 - 0,0 0 997,8
20:15 12,0 7,6 10,0 74,5 4,4 233 - 0,0 0 997,8
20:14 12,0 7,6 10,0 74,5 4,8 233 - 0,0 0 997,8
20:13 12,0 7,5 9,9 73,9 5,2 237 - 0,0 0 997,8
20:11 12,0 7,4 9,9 73,3 5,4 242 - 0,0 0 997,8
20:10 12,0 7,4 9,8 73,2 5,9 243 - 0,0 0 997,8
20:09 12,0 7,2 9,7 72,4 6,0 245 - 0,0 0 997,8
20:08 12,0 7,4 9,9 73,5 6,2 246 - 0,0 0 997,8
20:07 12,0 7,6 10,0 74,5 5,9 246 - 0,0 0 997,8
20:06 11,9 7,1 9,7 72,7 5,6 243 - 0,0 0 997,9
20:05 11,9 7,2 9,7 72,9 5,7 241 - 0,0 0 997,9
20:04 11,9 7,9 10,1 76,3 5,9 241 - 0,0 0 997,9
20:03 11,9 8,2 10,2 77,9 5,5 240 - 0,0 0 997,9
20:02 11,9 8,1 10,2 77,3 5,1 238 - 0,0 0 997,9
20:01 11,9 7,9 10,1 76,7 5,2 235 - 0,0 0 997,9
20:00 11,9 8,0 10,1 76,9 5,7 233 - 0,0 0 997,9
 
19:59 12,0 8,4 10,4 78,8 5,6 232 - 0,0 0 997,8
19:58 12,0 8,2 10,3 77,6 5,4 231 - 0,0 0 997,8
19:57 12,0 8,0 10,2 76,7 5,6 231 - 0,0 0 997,8
19:56 12,0 8,0 10,2 76,7 5,9 233 - 0,0 0 997,8
19:55 12,0 8,0 10,2 76,7 5,8 237 - 0,0 0 997,8
19:54 12,0 7,9 10,1 75,9 5,7 239 - 0,0 0 997,8
19:53 11,9 7,7 10,0 75,5 6,1 239 - 0,0 0 997,8
19:52 11,9 7,6 10,0 75,2 6,5 240 - 0,0 0 997,8
19:51 12,0 8,2 10,3 77,4 6,2 241 - 0,0 0 997,8
19:50 12,0 8,3 10,3 77,9 5,7 241 - 0,0 0 997,8
19:49 12,0 8,0 10,2 76,3 5,6 239 - 0,0 0 997,8
19:48 11,9 7,7 10,0 75,6 5,8 238 - 0,0 0 997,7
19:47 12,0 8,2 10,3 77,4 5,9 238 - 0,0 0 997,8
19:46 12,0 8,0 10,2 76,3 5,8 237 - 0,0 0 997,8
19:45 12,0 8,1 10,2 76,9 5,9 237 - 0,0 0 997,8
19:44 11,9 7,7 10,0 75,6 6,4 239 - 0,0 0 997,7
19:43 11,9 7,7 10,0 75,6 6,9 243 - 0,0 0 997,7
19:42 11,9 8,1 10,2 77,5 7,2 245 - 0,0 0 997,7
19:41 11,9 8,3 10,3 78,7 7,5 248 - 0,0 0 997,7
19:40 11,9 8,0 10,2 77,1 7,6 250 - 0,0 0 997,7
19:39 11,9 8,1 10,2 77,4 7,8 250 - 0,0 0 997,7
19:38 12,0 8,0 10,2 76,7 7,8 248 - 0,0 0 997,6
19:37 12,1 7,8 10,1 75,1 7,5 247 - 0,0 0 997,6
19:36 12,1 7,5 10,0 73,7 7,8 248 - 0,0 0 997,7
19:35 12,1 7,8 10,1 74,8 8,0 249 - 0,0 0 997,6
19:34 12,1 7,9 10,2 75,3 8,0 249 - 0,0 0 997,7
19:33 12,1 7,7 10,1 74,5 7,6 250 - 0,0 0 997,6
19:32 12,1 7,7 10,1 74,5 7,5 253 - 0,0 0 997,6
19:31 12,0 7,5 9,9 73,8 7,8 254 - 0,0 0 997,7
19:30 12,0 7,4 9,9 73,5 8,0 253 - 0,0 0 997,6
19:29 11,9 7,6 9,9 75,0 7,8 251 - 0,0 0 997,7
19:28 11,9 7,9 10,1 76,7 7,3 252 - 0,0 0 997,7
19:27 11,8 8,3 10,3 79,0 6,8 255 - 0,0 0 997,7
19:26 11,9 8,8 10,6 81,3 6,6 256 - 0,0 0 997,7
19:25 11,8 8,7 10,5 81,3 6,4 254 - 0,0 0 997,7
19:24 11,8 8,7 10,5 81,2 6,3 254 - 0,0 0 997,7
19:23 11,9 8,6 10,5 80,1 6,5 255 - 0,0 0 997,7
19:22 12,0 8,5 10,5 79,3 7,3 256 - 0,0 0 997,7
19:21 12,1 8,6 10,6 79,0 7,4 257 - 0,0 0 997,7
19:20 12,2 8,6 10,6 78,7 7,1 258 - 0,0 0 997,8
19:19 12,1 8,0 10,2 76,1 7,1 259 - 0,0 0 997,7
19:18 12,1 7,9 10,2 75,5 7,3 258 - 0,0 0 997,7
19:17 12,1 7,8 10,1 75,1 7,2 255 - 0,0 0 997,6
19:16 12,2 8,2 10,4 76,7 7,1 251 - 0,0 4 997,6
19:15 12,1 8,1 10,3 76,7 6,9 247 - 0,0 5 997,6
19:14 12,1 8,1 10,3 76,7 6,7 245 - 0,0 5 997,7
19:13 12,1 8,1 10,3 76,7 6,8 245 - 0,0 6 997,7
19:12 12,1 8,0 10,2 75,9 7,0 247 - 0,0 7 997,6
19:11 12,2 8,3 10,5 77,1 7,0 248 - 0,0 7 997,6
19:10 12,2 8,5 10,5 77,9 6,8 250 - 0,0 9 997,7
19:09 12,2 8,3 10,5 77,3 6,5 251 - 0,0 9 997,6
19:08 12,1 8,1 10,3 76,7 6,5 253 - 0,0 9 997,7
19:07 12,1 8,3 10,4 77,8 6,4 254 - 0,0 11 997,6
19:06 12,1 8,2 10,4 77,2 6,3 255 - 0,0 12 997,6
19:05 12,1 8,6 10,6 79,0 6,2 255 - 0,0 12 997,7
19:04 12,0 8,5 10,5 79,0 6,6 255 - 0,0 12 997,7
19:03 12,0 8,5 10,5 79,0 7,1 253 - 0,0 14 997,6
19:02 12,0 8,5 10,5 79,0 7,2 251 - 0,0 14 997,6
19:01 12,0 8,5 10,5 79,0 6,7 248 - 0,0 16 997,6
19:00 11,9 8,2 10,3 78,0 6,3 245 - 0,0 16 997,6
 
18:59 11,9 8,2 10,2 77,9 6,1 240 - 0,0 17 997,6
18:58 11,9 8,3 10,3 78,4 5,8 236 - 0,0 18 997,7
18:57 11,9 8,6 10,5 80,4 5,8 235 - 0,0 19 997,6
18:56 11,9 8,8 10,6 81,3 6,1 233 - 0,0 19 997,6
18:55 11,9 8,8 10,6 81,3 5,9 232 - 0,0 20 997,6
18:54 11,9 8,8 10,6 81,3 5,8 233 - 0,0 21 997,7
18:53 11,9 8,8 10,6 81,3 5,6 235 - 0,0 21 997,6
18:52 11,8 8,6 10,4 80,7 5,4 236 - 0,0 23 997,7
18:51 11,8 8,5 10,4 80,1 4,6 235 - 0,0 23 997,7
18:50 11,8 8,5 10,4 80,1 3,7 233 - 0,0 25 997,7
18:49 11,7 8,4 10,3 80,1 3,3 231 - 0,0 25 997,7
18:48 11,7 8,2 10,2 79,0 3,3 230 - 0,0 26 997,7
18:47 11,7 8,2 10,2 79,0 3,3 228 - 0,0 26 997,7
18:46 11,7 8,2 10,2 79,0 3,1 227 - 0,0 28 997,6
18:45 11,7 8,2 10,2 79,0 2,9 225 - 0,0 28 997,7
18:44 11,8 8,3 10,3 79,0 2,9 223 - 0,0 31 997,6
18:43 11,7 8,2 10,2 79,0 2,8 222 - 0,0 32 997,6
18:42 11,7 8,2 10,2 79,0 3,0 221 - 0,0 33 997,6
18:41 11,7 8,2 10,2 79,0 3,2 220 - 0,0 34 997,6
18:40 11,7 8,2 10,2 79,0 3,3 219 - 0,0 35 997,6
18:39 11,7 8,2 10,2 79,0 3,1 219 - 0,0 38 997,6
18:38 11,7 8,2 10,2 79,0 2,9 219 - 0,0 39 997,5
18:37 11,7 8,2 10,2 79,0 3,0 219 - 0,0 41 997,5
18:36 11,7 8,2 10,2 79,0 3,1 219 - 0,0 42 997,5
18:35 11,7 8,2 10,2 79,0 2,9 219 - 0,0 44 997,5
18:34 11,7 8,2 10,2 79,0 2,9 219 - 0,0 44 997,5
18:33 11,7 8,2 10,2 79,0 3,3 218 - 0,0 46 997,6
18:32 11,7 8,2 10,2 79,0 3,5 217 - 0,0 46 997,6
18:31 11,7 8,2 10,2 79,0 3,0 217 - 0,0 47 997,6
18:30 11,7 8,2 10,2 79,0 3,0 216 - 0,0 47 997,6
18:29 11,8 8,3 10,3 79,0 3,6 215 - 0,0 49 997,5
18:28 11,8 8,3 10,3 79,0 4,4 216 - 0,0 49 997,5
18:27 11,8 8,4 10,3 79,8 4,8 219 - 0,0 49 997,5
18:26 11,8 8,5 10,4 80,1 4,5 220 - 0,0 49 997,5
18:25 11,9 8,4 10,4 79,1 4,3 221 - 0,0 49 997,5
18:24 11,9 8,4 10,4 79,0 4,2 223 - 0,0 48 997,5
18:23 11,9 8,4 10,4 79,0 4,4 224 - 0,0 47 997,5
18:22 11,9 8,4 10,4 79,0 4,3 225 - 0,0 47 997,5
18:21 11,9 8,2 10,3 78,2 4,0 225 - 0,0 47 997,6
18:20 12,0 8,3 10,3 77,9 3,9 226 - 0,0 46 997,5
18:19 12,0 8,2 10,3 77,8 4,0 225 - 0,0 45 997,5
18:18 12,0 8,0 10,2 76,7 4,0 223 - 0,0 44 997,5
18:17 12,0 8,0 10,2 76,7 4,0 222 - 0,0 44 997,5
18:16 12,0 7,9 10,1 76,1 3,8 221 - 0,0 42 997,5
18:15 12,1 7,9 10,2 75,6 3,9 220 - 0,0 42 997,5
18:14 12,1 7,9 10,2 75,6 3,9 221 - 0,0 42 997,5
18:13 12,1 7,9 10,2 75,4 4,0 222 - 0,0 42 997,5
18:12 12,1 7,7 10,1 74,5 3,7 222 - 0,0 41 997,4
18:11 12,1 7,7 10,1 74,5 3,7 222 - 0,0 40 997,5
18:10 12,1 7,8 10,2 75,2 3,9 221 - 0,0 42 997,5
18:09 12,2 8,0 10,3 75,6 3,9 221 - 0,0 42 997,5
18:08 12,2 8,0 10,3 75,5 3,7 220 - 0,0 42 997,5
18:07 12,2 7,9 10,2 74,8 3,8 220 - 0,0 42 997,5
18:06 12,3 8,1 10,4 75,6 4,0 222 - 0,0 42 997,5
18:05 12,3 8,1 10,4 75,6 3,8 224 - 0,0 42 997,5
18:04 12,3 8,1 10,4 75,6 3,7 226 - 0,0 42 997,5
18:03 12,3 8,1 10,4 75,6 4,0 226 - 0,0 42 997,4
18:02 12,4 8,2 10,5 75,6 4,4 227 - 0,0 42 997,4
18:01 12,4 8,2 10,5 75,6 4,3 227 - 0,0 42 997,4
18:00 12,4 8,2 10,5 75,6 4,2 227 - 0,0 42 997,4
 
17:59 12,5 8,4 10,6 76,2 4,4 228 - 0,0 42 997,4
17:58 12,5 8,5 10,7 76,7 4,5 230 - 0,0 42 997,4
17:56 12,6 8,6 10,8 76,7 4,1 233 - 0,0 42 997,4
17:55 12,7 8,7 10,9 76,5 4,1 233 - 0,0 42 997,4
17:54 12,7 8,5 10,8 75,6 4,3 233 - 0,0 42 997,4
17:53 12,7 8,5 10,8 75,6 3,9 232 - 0,0 44 997,4
17:52 12,8 8,6 10,9 75,6 3,7 231 - 0,0 44 997,4
17:51 12,8 8,6 10,9 75,7 3,6 229 - 0,0 45 997,4
17:50 12,8 8,8 11,0 76,7 3,5 228 - 0,0 47 997,4
17:49 12,9 8,9 11,1 76,7 3,1 229 - 0,0 48 997,4
17:48 12,9 8,9 11,1 76,7 2,8 231 - 0,0 49 997,4
17:47 12,9 8,9 11,1 76,7 2,7 232 - 0,0 53 997,4
17:46 12,9 8,7 11,0 75,7 2,7 232 - 0,0 54 997,4
17:45 12,9 8,7 11,0 75,6 3,0 231 - 0,0 57 997,4
17:44 12,9 8,5 10,9 74,6 3,5 229 - 0,0 60 997,4
17:43 12,9 8,5 10,9 74,5 3,9 230 - 0,0 64 997,4
17:42 13,0 8,7 11,0 75,1 3,9 231 - 0,0 67 997,3
17:41 13,0 8,8 11,1 75,6 3,5 232 - 0,0 70 997,4
17:40 13,0 8,8 11,1 75,6 3,4 234 - 0,0 75 997,4
17:39 13,0 8,6 11,0 74,8 3,5 235 - 0,0 79 997,4
17:38 13,0 8,6 10,9 74,5 3,6 237 - 0,0 84 997,4
17:37 13,0 8,6 10,9 74,5 3,8 239 - 0,0 86 997,4
17:36 13,0 8,6 10,9 74,5 4,2 242 - 0,0 89 997,4
17:35 13,0 8,6 10,9 74,5 4,3 243 - 0,0 92 997,4
17:34 13,0 8,4 10,9 73,8 4,6 244 - 0,0 96 997,4
17:33 13,0 8,4 10,8 73,5 4,8 245 - 0,0 97 997,3
17:32 13,0 8,6 11,0 74,8 4,9 245 - 0,0 99 997,3
17:31 13,0 8,8 11,1 75,6 4,7 244 - 0,0 101 997,3
17:30 13,0 8,8 11,1 75,6 4,6 242 - 0,0 104 997,4
17:29 13,0 8,8 11,1 75,6 4,6 240 - 0,0 104 997,3
17:28 13,1 8,9 11,2 75,6 4,5 238 - 0,0 104 997,3
17:27 13,1 8,9 11,2 75,6 4,4 237 - 0,0 104 997,3
17:26 13,1 8,6 11,0 74,3 4,1 236 - 0,0 104 997,3
17:25 13,1 8,5 11,0 73,9 3,8 235 - 0,0 104 997,3
17:24 13,2 8,7 11,1 74,0 3,3 235 - 0,0 102 997,3
17:23 13,2 8,4 10,9 72,8 3,0 236 - 0,0 102 997,3
17:22 13,2 8,3 10,9 72,4 3,1 237 - 0,0 99 997,3
17:21 13,2 8,4 10,9 72,5 3,2 237 - 0,0 98 997,3
17:20 13,3 8,7 11,1 73,4 3,0 238 - 0,0 97 997,3
17:19 13,3 8,9 11,2 74,6 2,8 240 - 0,0 96 997,3
17:18 13,4 9,3 11,5 76,2 2,3 240 - 0,0 93 997,3
17:17 13,5 9,4 11,6 76,4 2,0 239 - 0,0 93 997,3
17:16 13,5 9,5 11,7 76,7 1,9 236 - 0,0 91 997,3
17:15 13,5 9,3 11,6 75,7 2,2 235 - 0,0 91 997,2
17:14 13,5 9,3 11,6 75,6 2,3 234 - 0,0 90 997,3
17:13 13,5 9,2 11,5 75,2 2,3 232 - 0,0 90 997,3
17:12 13,5 9,1 11,4 74,5 2,1 232 - 0,0 91 997,2
17:11 13,5 9,1 11,4 74,5 2,1 233 - 0,0 96 997,3
17:10 13,5 8,9 11,3 73,8 2,3 235 - 0,0 101 997,2
17:09 13,4 9,0 11,3 74,5 2,4 235 - 0,0 96 997,2
17:08 13,4 8,9 11,3 74,3 2,3 234 - 0,0 102 997,2
17:07 13,4 8,7 11,2 73,4 2,4 235 - 0,0 133 997,2
17:06 13,3 8,8 11,2 74,1 2,4 235 - 0,0 167 997,2
17:05 13,3 8,9 11,2 74,5 2,4 234 - 0,0 144 997,2
17:04 13,3 8,7 11,1 73,7 2,5 232 - 0,0 116 997,2
17:03 13,3 8,7 11,1 73,4 2,7 231 - 0,0 99 997,2
17:02 13,3 8,7 11,1 73,8 2,7 231 - 0,0 97 997,2
17:01 13,3 8,8 11,2 74,1 2,5 231 - 0,0 90 997,2
17:00 13,3 8,8 11,2 74,1 2,6 231 - 0,0 88 997,2
 
16:59 13,3 8,9 11,2 74,5 2,7 232 - 0,0 94 997,2
16:58 13,3 8,9 11,2 74,5 2,8 235 - 0,0 98 997,2
16:57 13,3 8,9 11,2 74,5 2,8 237 - 0,0 102 997,1
16:56 13,3 8,8 11,2 74,2 3,0 238 - 0,0 105 997,1
16:55 13,3 8,7 11,1 73,4 3,1 239 - 0,0 107 997,2
16:54 13,3 8,5 11,0 72,8 3,2 240 - 0,0 109 997,1
16:53 13,3 8,1 10,8 70,7 3,1 242 - 0,0 112 997,2
16:52 13,3 8,2 10,9 71,3 3,0 244 - 0,0 116 997,1
16:51 13,4 8,4 11,0 71,9 3,0 247 - 0,0 124 997,1
16:50 13,4 8,2 10,9 71,0 3,0 251 - 0,0 137 997,1
16:49 13,5 8,6 11,2 72,4 2,9 254 - 0,0 164 997,1
16:48 13,6 8,9 11,3 73,0 2,8 253 - 0,0 211 997,1
16:47 13,7 9,0 11,5 73,4 2,8 250 - 0,0 249 997,1
16:46 13,8 9,2 11,6 73,5 2,7 247 - 0,0 287 997,1
16:45 13,7 9,3 11,6 74,5 2,8 245 - 0,0 350 997,1
16:44 13,8 9,4 11,7 74,5 2,7 242 - 0,0 404 997,1
16:43 13,7 9,1 11,6 74,0 2,5 242 - 0,0 252 997,1
16:42 13,7 9,2 11,6 74,2 2,6 244 - 0,0 258 997,1
16:41 13,7 9,1 11,5 73,7 3,0 246 - 0,0 455 997,1
16:40 13,7 9,3 11,6 74,6 3,2 247 - 0,0 478 997,1
16:39 13,8 9,6 11,8 75,6 3,2 246 - 0,0 513 997,1
16:38 13,7 9,4 11,7 75,3 3,0 246 - 0,0 513 997,2
16:37 13,6 9,3 11,6 75,1 3,1 245 - 0,0 515 997,1
16:36 13,6 9,4 11,7 75,6 3,6 245 - 0,0 512 997,1
16:35 13,5 9,3 11,6 75,6 3,9 245 - 0,0 507 997,1
16:34 13,5 9,3 11,6 75,6 3,8 245 - 0,0 501 997,1
16:33 13,5 9,2 11,5 75,4 3,6 246 - 0,0 492 997,1
16:32 13,5 9,1 11,4 74,5 3,6 247 - 0,0 481 997,1
16:31 13,6 9,3 11,6 75,2 3,6 246 - 0,0 462 997,1
16:30 13,6 9,4 11,7 75,6 3,5 246 - 0,0 425 997,1
16:29 13,5 9,3 11,6 75,6 3,4 246 - 0,0 441 997,1
16:28 13,5 9,3 11,6 75,6 3,4 247 - 0,0 440 997,1
16:27 13,6 9,4 11,7 75,6 3,3 246 - 0,0 434 997,1
16:26 13,6 9,4 11,7 75,6 3,2 246 - 0,0 427 997,0
16:25 13,5 9,3 11,6 75,6 3,0 247 - 0,0 411 997,1
16:24 13,4 9,2 11,5 75,6 3,0 247 - 0,0 391 997,1
16:23 13,3 9,1 11,4 75,6 3,1 244 - 0,0 400 997,1
16:22 13,3 9,3 11,5 76,5 3,2 242 - 0,0 387 997,0
16:21 13,3 9,1 11,4 75,6 3,2 242 - 0,0 338 997,0
16:20 13,3 9,0 11,3 75,2 3,1 243 - 0,0 268 997,0
16:19 13,4 9,0 11,3 74,5 3,2 243 - 0,0 203 997,0
16:18 13,5 8,9 11,3 73,8 3,3 243 - 0,0 203 997,0
16:17 13,6 8,9 11,4 73,4 3,2 245 - 0,0 241 997,0
16:16 13,6 9,2 11,5 74,5 2,8 244 - 0,0 259 997,0
16:15 13,5 9,1 11,4 74,5 2,8 242 - 0,0 298 997,0
16:14 13,5 9,0 11,4 74,1 3,1 241 - 0,0 352 997,0
16:13 13,5 8,8 11,3 73,4 3,4 241 - 0,0 365 997,0
16:12 13,5 9,0 11,4 74,3 3,5 241 - 0,0 335 997,0
16:11 13,5 9,1 11,4 74,5 3,7 241 - 0,0 338 997,0
16:10 13,4 9,0 11,3 74,5 3,8 242 - 0,0 349 997,0
16:09 13,4 9,0 11,3 74,5 4,2 242 - 0,0 360 996,9
16:08 13,5 9,1 11,4 74,5 4,3 240 - 0,0 381 996,9
16:07 13,5 8,9 11,4 73,9 4,0 239 - 0,0 408 996,9
16:06 13,5 8,7 11,2 72,7 3,9 240 - 0,0 438 996,9
16:05 13,5 8,8 11,3 73,1 4,1 242 - 0,0 437 996,9
16:04 13,5 8,4 11,1 71,3 4,1 245 - 0,0 451 996,9
16:03 13,5 8,3 11,0 70,8 3,9 248 - 0,0 463 996,9
16:02 13,6 8,3 11,0 70,2 3,5 253 - 0,0 472 996,9
16:01 13,6 8,5 11,1 71,1 3,3 255 - 0,0 488 996,9
16:00 13,6 8,5 11,1 71,3 3,3 253 - 0,0 490 996,9
 
15:59 13,5 8,4 11,1 71,5 3,0 249 - 0,0 492 996,9
15:58 13,4 8,5 11,1 72,4 2,6 246 - 0,0 474 996,9
15:57 13,3 8,3 10,9 71,9 2,6 243 - 0,0 459 996,8
15:56 13,2 8,1 10,8 71,3 2,9 242 - 0,0 451 996,9
15:55 13,1 8,0 10,7 71,3 3,2 243 - 0,0 412 996,8
15:54 13,0 8,1 10,7 72,1 3,5 245 - 0,0 350 996,9
15:53 12,9 8,1 10,6 72,7 3,7 248 - 0,0 301 996,9
15:52 12,9 8,2 10,7 73,2 3,8 250 - 0,0 272 996,9
15:51 12,9 8,1 10,7 72,8 3,8 251 - 0,0 256 996,8
15:50 12,9 8,3 10,7 73,4 3,9 251 - 0,0 230 996,9
15:49 12,8 8,2 10,6 73,4 3,8 251 - 0,0 198 996,9
15:48 12,8 8,2 10,6 73,4 3,5 250 - 0,0 170 996,8
15:47 12,8 8,4 10,8 74,5 3,5 249 - 0,0 156 996,8
15:46 12,8 8,4 10,8 74,5 3,6 246 - 0,0 141 996,9
15:45 12,8 8,4 10,8 74,5 3,7 243 - 0,0 136 996,9
15:44 12,8 8,4 10,8 74,5 3,5 241 - 0,0 135 996,9
15:43 12,9 8,5 10,9 74,5 3,4 240 - 0,0 134 996,9
15:41 12,9 8,4 10,8 74,2 3,4 239 - 0,0 135 996,9
15:40 13,0 8,2 10,7 72,7 3,6 238 - 0,0 136 996,9
15:39 13,1 8,6 11,0 74,0 3,9 239 - 0,0 141 996,8
15:38 13,2 8,6 11,1 73,9 3,6 242 - 0,0 151 996,9
15:37 13,2 8,2 10,8 71,8 3,5 243 - 0,0 167 996,8
15:36 13,3 8,4 10,9 72,0 3,6 243 - 0,0 199 996,8
15:35 13,4 8,3 11,0 71,5 3,7 243 - 0,0 238 996,8
15:34 13,5 8,5 11,1 71,7 3,5 242 - 0,0 280 996,8
15:33 13,6 8,3 11,0 70,2 3,4 240 - 0,0 316 996,8
15:32 13,7 8,5 11,2 70,8 3,5 238 - 0,0 383 996,8
15:31 13,7 8,4 11,1 70,3 3,5 238 - 0,0 430 996,8
15:30 13,6 8,5 11,1 71,3 3,4 239 - 0,0 494 996,8
15:29 13,6 8,8 11,3 72,7 3,3 241 - 0,0 528 996,8
15:28 13,5 8,8 11,3 73,1 3,3 243 - 0,0 554 996,8
15:27 13,4 8,6 11,1 72,9 3,5 245 - 0,0 584 996,8
15:26 13,3 8,7 11,1 73,4 3,5 246 - 0,0 575 996,7
15:25 13,3 8,5 11,0 72,7 3,3 247 - 0,0 513 996,8
15:24 13,2 8,2 10,8 71,6 3,3 246 - 0,0 415 996,8
15:23 13,2 8,8 11,1 74,5 3,2 245 - 0,0 415 996,7
15:22 13,2 8,8 11,1 74,5 3,2 244 - 0,0 399 996,8
15:21 13,1 8,7 11,0 74,5 3,2 243 - 0,0 370 996,8
15:20 13,1 8,8 11,1 75,3 3,3 242 - 0,0 350 996,8
15:19 13,1 8,9 11,2 75,6 3,2 240 - 0,0 343 996,8
15:18 13,0 8,8 11,1 75,6 3,1 239 - 0,0 345 996,8
15:17 13,0 8,8 11,1 75,6 3,1 239 - 0,0 357 996,8
15:16 13,0 8,9 11,1 76,1 3,3 242 - 0,0 364 996,8
15:15 13,0 9,0 11,2 76,7 3,4 247 - 0,0 368 996,8
15:14 12,9 8,6 10,9 75,3 3,1 253 - 0,0 361 996,8
15:13 12,8 8,4 10,8 74,5 3,2 258 - 0,0 356 996,8
15:12 12,8 8,6 10,9 75,6 3,4 261 - 0,0 317 996,8
15:11 12,8 8,6 10,9 75,6 3,4 263 - 0,0 281 996,8
15:10 12,7 8,5 10,8 75,6 3,3 263 - 0,0 256 996,8
15:09 12,7 8,6 10,9 76,3 3,4 260 - 0,0 227 996,8
15:08 12,7 8,6 10,8 76,0 3,5 258 - 0,0 209 996,8
15:07 12,7 8,5 10,8 75,7 3,7 254 - 0,0 202 996,8
15:06 12,8 8,8 11,0 76,7 3,9 250 - 0,0 199 996,8
15:05 12,7 8,7 10,9 76,5 4,0 244 - 0,0 192 996,8
15:04 12,7 8,5 10,8 75,6 3,9 239 - 0,0 187 996,8
15:03 12,8 8,5 10,8 75,1 4,1 237 - 0,0 186 996,8
15:02 12,7 8,3 10,7 74,5 4,2 238 - 0,0 186 996,7
15:01 12,7 8,1 10,6 73,7 4,1 239 - 0,0 190 996,7
15:00 12,7 8,3 10,7 74,5 4,1 242 - 0,0 194 996,7
 
14:59 12,7 8,4 10,7 74,9 4,3 246 - 0,0 198 996,7
14:58 12,7 8,5 10,8 75,6 4,2 248 - 0,0 201 996,7
14:57 12,8 8,5 10,8 75,0 4,2 250 - 0,0 203 996,7
14:56 12,8 8,4 10,8 74,6 4,2 250 - 0,0 210 996,6
14:55 12,8 8,6 10,9 75,6 4,3 250 - 0,0 213 996,6
14:54 12,8 8,6 10,9 75,6 4,2 252 - 0,0 209 996,6
14:53 12,8 8,5 10,8 75,3 4,0 254 - 0,0 212 996,7
14:52 12,8 8,5 10,8 75,1 3,9 253 - 0,0 217 996,7
14:51 12,8 8,6 10,9 75,6 4,0 252 - 0,0 219 996,7
14:50 12,9 8,7 11,0 75,6 3,9 252 - 0,0 200 996,7
14:49 12,9 8,9 11,1 76,9 3,9 250 - 0,0 199 996,7
14:48 12,9 9,1 11,2 77,6 3,9 248 - 0,0 200 996,7
14:47 12,9 8,9 11,1 76,4 3,9 247 - 0,0 203 996,7
14:46 12,9 8,7 11,0 75,6 4,0 247 - 0,0 206 996,7
14:45 12,9 8,6 10,9 75,0 4,0 248 - 0,0 207 996,7
14:44 12,9 8,5 10,9 74,5 3,8 248 - 0,0 214 996,7
14:43 12,9 8,4 10,8 74,3 3,6 248 - 0,0 224 996,8
14:42 12,9 8,3 10,7 73,4 3,7 247 - 0,0 228 996,8
14:41 12,9 8,4 10,8 73,9 4,1 247 - 0,0 224 996,7
14:40 12,9 8,3 10,7 73,4 4,1 247 - 0,0 219 996,7
14:39 13,0 8,4 10,9 73,8 4,1 247 - 0,0 224 996,7
14:38 13,0 8,6 10,9 74,5 4,1 246 - 0,0 235 996,8
14:37 13,1 8,2 10,8 72,4 4,2 246 - 0,0 254 996,7
14:36 13,1 8,1 10,7 71,8 4,2 247 - 0,0 273 996,8
14:35 13,2 8,6 11,0 73,4 4,0 246 - 0,0 310 996,8
14:34 13,2 8,6 11,0 73,4 3,8 245 - 0,0 328 996,8
14:33 13,2 8,4 10,9 72,8 3,6 244 - 0,0 339 996,8
14:32 13,1 8,4 10,9 73,1 3,6 244 - 0,0 334 996,8
14:31 13,1 8,2 10,8 72,4 3,6 245 - 0,0 334 996,8
14:30 13,1 8,2 10,8 72,4 3,6 246 - 0,0 362 996,9
14:29 13,1 8,3 10,8 72,8 3,8 246 - 0,0 393 996,8
14:28 13,1 8,6 11,0 74,1 4,0 246 - 0,0 419 996,9
14:27 13,2 8,8 11,1 74,5 4,0 246 - 0,0 420 996,9
14:26 13,2 9,0 11,3 75,5 3,8 246 - 0,0 420 996,8
14:25 13,1 8,5 10,9 73,5 3,6 245 - 0,0 505 996,8
14:24 13,1 8,5 11,0 73,8 3,5 243 - 0,0 608 996,8
14:23 13,1 8,7 11,0 74,5 3,4 243 - 0,0 367 996,8
14:22 13,1 8,7 11,0 74,5 3,4 244 - 0,0 287 996,9
14:21 13,1 8,5 11,0 73,8 3,4 245 - 0,0 282 996,9
14:20 13,1 8,5 10,9 73,4 3,4 244 - 0,0 255 996,9
14:19 13,2 8,4 10,9 72,7 3,3 244 - 0,0 243 996,9
14:18 13,3 8,6 11,1 73,1 3,3 246 - 0,0 236 996,9
14:17 13,4 8,6 11,1 72,9 3,2 248 - 0,0 532 996,9
14:16 13,3 8,5 11,0 72,8 3,1 249 - 0,0 606 996,9
14:15 13,3 8,4 11,0 72,4 3,2 250 - 0,0 593 996,9
14:14 13,3 8,4 11,0 72,4 3,4 250 - 0,0 575 996,9
14:13 13,3 8,8 11,2 74,3 3,3 249 - 0,0 541 997,0
14:12 13,3 8,7 11,1 73,8 3,0 249 - 0,0 544 996,9
14:11 13,2 8,6 11,0 73,5 3,0 247 - 0,0 605 996,9
14:10 13,1 8,2 10,8 72,4 3,4 245 - 0,0 531 996,9
14:09 13,1 8,2 10,8 72,4 3,7 243 - 0,0 482 996,9
14:07 13,2 8,6 11,1 73,9 3,7 242 - 0,0 510 996,9
14:06 13,2 8,7 11,1 74,2 3,5 242 - 0,0 465 996,9
14:05 13,1 8,3 10,9 72,9 3,4 242 - 0,0 462 996,8
14:04 13,0 8,0 10,6 71,6 3,4 243 - 0,0 522 996,9
14:03 13,0 7,9 10,6 71,4 3,4 244 - 0,0 530 996,9
14:02 13,1 8,2 10,8 72,4 3,4 247 - 0,0 504 996,9
14:01 13,2 8,4 10,9 72,8 3,5 249 - 0,0 503 996,9
14:00 13,1 8,6 11,0 74,1 3,4 251 - 0,0 517 996,9
 
13:59 13,0 8,3 10,8 72,9 3,4 250 - 0,0 506 996,9
13:58 13,0 8,0 10,6 71,7 3,5 248 - 0,0 561 996,9
13:57 13,0 7,9 10,6 71,3 3,7 248 - 0,0 548 996,9
13:56 13,0 8,2 10,7 72,5 3,7 249 - 0,0 583 996,9
13:55 13,1 8,4 10,9 73,1 3,5 249 - 0,0 611 996,9
13:54 13,0 8,3 10,8 73,2 3,4 250 - 0,0 623 996,9
13:53 13,0 8,5 10,9 74,0 3,4 251 - 0,0 567 997,0
13:52 12,9 8,4 10,8 74,2 3,5 253 - 0,0 516 996,9
13:51 12,9 8,5 10,9 74,5 3,7 251 - 0,0 522 996,9
13:50 12,9 8,5 10,8 74,4 3,7 247 - 0,0 564 996,9
13:49 12,9 8,3 10,7 73,4 3,8 244 - 0,0 610 996,9
13:48 12,9 8,3 10,7 73,4 3,6 243 - 0,0 610 996,9
13:47 12,8 8,1 10,6 72,9 3,5 242 - 0,0 607 996,9
13:46 12,8 7,9 10,5 72,4 3,5 242 - 0,0 606 996,9
13:45 12,9 8,0 10,6 72,4 3,6 243 - 0,0 596 996,9
13:44 12,9 8,1 10,6 72,7 3,6 245 - 0,0 613 996,9
13:43 13,0 8,5 10,9 74,3 3,4 248 - 0,0 612 996,9
13:42 13,1 8,5 10,9 73,4 3,3 250 - 0,0 612 996,9
13:41 13,0 8,4 10,8 73,4 3,2 252 - 0,0 612 996,9
13:40 13,0 8,5 10,9 74,2 3,2 253 - 0,0 612 996,9
13:39 12,9 8,3 10,8 73,7 3,1 253 - 0,0 609 996,9
13:38 12,8 8,0 10,5 72,5 3,2 252 - 0,0 608 996,9
13:37 12,9 8,0 10,6 72,4 3,3 249 - 0,0 607 996,9
13:36 12,9 8,0 10,6 72,4 3,3 244 - 0,0 608 996,9
13:35 12,9 8,2 10,7 73,0 3,3 240 - 0,0 606 996,8
13:34 12,9 8,4 10,8 74,3 3,3 237 - 0,0 596 996,8
13:33 12,9 8,7 11,0 75,5 3,2 237 - 0,0 605 996,8
13:32 12,8 8,5 10,8 75,3 3,0 237 - 0,0 604 996,8
13:31 12,7 8,3 10,7 74,5 3,0 240 - 0,0 602 996,8
13:30 12,7 8,2 10,6 74,1 3,1 243 - 0,0 599 996,8
13:29 12,8 8,4 10,8 74,8 3,1 246 - 0,0 598 996,8
13:28 12,7 8,5 10,8 75,6 2,9 247 - 0,0 596 996,8
13:27 12,7 8,3 10,7 74,8 2,9 246 - 0,0 595 996,8
13:26 12,6 8,4 10,7 75,6 2,8 246 - 0,0 593 996,8
13:25 12,6 8,3 10,6 75,3 2,9 246 - 0,0 590 996,8
13:24 12,6 8,2 10,6 74,5 2,9 245 - 0,0 589 996,7
13:23 12,5 8,4 10,6 76,0 2,9 245 - 0,0 586 996,7
13:22 12,5 8,4 10,6 76,0 2,8 248 - 0,0 541 996,8
13:21 12,5 8,3 10,6 75,6 2,8 251 - 0,0 479 996,7
13:20 12,5 8,3 10,6 75,4 2,9 254 - 0,0 501 996,7
13:19 12,6 8,2 10,6 74,5 3,1 256 - 0,0 554 996,7
13:18 12,6 8,3 10,6 75,1 3,0 257 - 0,0 553 996,7
13:17 12,5 8,0 10,4 74,2 2,8 259 - 0,0 575 996,8
13:16 12,5 7,9 10,3 73,4 2,7 260 - 0,0 579 996,7
13:15 12,5 8,1 10,5 74,5 2,9 260 - 0,0 577 996,7
13:14 12,6 8,3 10,6 74,9 2,9 258 - 0,0 576 996,8
13:13 12,5 8,3 10,6 75,6 2,6 257 - 0,0 575 996,8
13:12 12,4 8,2 10,5 75,6 2,7 256 - 0,0 575 996,8
13:11 12,4 8,2 10,5 75,6 3,1 256 - 0,0 571 996,8
13:10 12,4 8,4 10,6 76,5 3,3 254 - 0,0 570 996,8
13:09 12,4 8,4 10,6 76,7 3,2 252 - 0,0 568 996,8
13:08 12,4 8,4 10,6 76,7 2,8 250 - 0,0 567 996,8
13:07 12,4 8,4 10,6 76,7 2,5 249 - 0,0 565 996,8
13:06 12,3 8,2 10,5 76,2 2,8 248 - 0,0 564 996,8
13:05 12,3 8,1 10,4 75,6 3,0 249 - 0,0 562 996,8
13:04 12,3 8,1 10,4 75,7 3,0 250 - 0,0 560 996,8
13:03 12,3 8,3 10,5 76,7 2,9 253 - 0,0 558 996,8
13:02 12,2 8,2 10,4 76,5 3,0 255 - 0,0 556 996,8
13:01 12,2 8,0 10,3 75,6 3,0 254 - 0,0 544 996,8
13:00 12,2 8,0 10,3 75,6 3,2 253 - 0,0 547 996,8
 
12:59 12,2 8,0 10,3 75,6 3,4 252 - 0,0 544 996,7
12:58 12,2 8,0 10,3 75,6 3,6 252 - 0,0 531 996,8
12:57 12,2 8,4 10,5 77,6 3,3 253 - 0,0 468 996,8
12:56 12,1 8,2 10,4 77,1 3,1 254 - 0,0 394 996,8
12:55 12,2 8,5 10,5 77,9 2,9 253 - 0,0 372 996,8
12:54 12,2 8,5 10,5 77,9 3,0 253 - 0,0 416 996,8
12:53 12,2 8,5 10,5 77,9 3,0 252 - 0,0 455 996,8
12:52 12,2 8,5 10,5 77,9 3,2 252 - 0,0 466 996,8
12:51 12,1 8,2 10,3 76,9 3,3 250 - 0,0 489 996,8
12:50 12,2 8,5 10,5 77,9 3,3 249 - 0,0 533 996,7
12:49 12,2 8,6 10,6 78,5 3,0 249 - 0,0 548 996,7
12:48 12,1 8,4 10,4 77,9 2,8 251 - 0,0 550 996,8
12:47 12,0 8,3 10,3 77,9 2,7 250 - 0,0 549 996,8
12:46 11,9 8,2 10,2 77,9 2,9 249 - 0,0 550 996,7
12:45 12,0 8,3 10,3 77,9 3,1 248 - 0,0 550 996,7
12:44 12,0 8,3 10,3 77,9 3,3 247 - 0,0 551 996,8
12:43 12,0 8,4 10,4 78,4 3,5 245 - 0,0 552 996,8
12:42 12,0 8,5 10,5 79,0 3,4 242 - 0,0 548 996,8
12:41 11,9 8,4 10,4 79,0 3,3 239 - 0,0 547 996,8
12:40 11,9 8,0 10,1 77,0 3,2 239 - 0,0 545 996,8
12:39 11,8 7,6 9,9 75,6 3,2 240 - 0,0 542 996,8
12:38 11,8 7,7 10,0 76,1 2,9 245 - 0,0 540 996,8
12:37 11,9 7,9 10,1 76,7 3,0 251 - 0,0 540 996,7
12:36 11,9 7,9 10,1 76,7 3,1 256 - 0,0 536 996,7
12:35 11,8 7,9 10,0 76,9 3,3 259 - 0,0 535 996,7
12:34 11,8 - - - - - - - - -
12:33 11,8 8,4 10,3 79,7 3,6 261 - 0,0 532 996,7
12:32 11,8 8,4 10,3 79,5 3,6 261 - 0,0 530 996,7
12:31 11,7 8,3 10,2 79,6 3,5 261 - 0,0 527 996,7
12:30 11,7 8,2 10,2 79,0 3,5 262 - 0,0 526 996,7
12:29 11,7 8,2 10,2 79,0 3,6 263 - 0,0 525 996,7
12:28 11,7 8,0 10,1 78,0 3,7 264 - 0,0 521 996,7
12:27 11,7 8,0 10,1 78,2 3,9 265 - 0,0 520 996,7
12:26 11,7 8,2 10,2 79,0 4,0 264 - 0,0 520 996,7
12:25 11,7 8,2 10,2 79,0 4,1 261 - 0,0 519 996,7
12:24 11,7 8,3 10,3 79,9 3,9 257 - 0,0 517 996,7
12:23 11,7 8,4 10,3 80,1 3,6 254 - 0,0 515 996,7
12:22 11,7 8,6 10,4 81,0 3,8 251 - 0,0 515 996,6
12:21 11,6 8,3 10,2 80,1 3,8 249 - 0,0 515 996,7
12:20 11,6 8,3 10,2 80,1 3,7 250 - 0,0 514 996,7
12:19 11,6 8,3 10,2 80,1 3,6 251 - 0,0 512 996,7
12:18 11,6 8,3 10,2 80,1 3,9 251 - 0,0 512 996,7
12:17 11,6 8,5 10,3 81,2 4,1 249 - 0,0 512 996,7
12:16 11,6 8,4 10,3 80,9 3,6 247 - 0,0 510 996,7
12:15 11,5 8,3 10,1 80,5 3,3 245 - 0,0 510 996,6
12:14 11,6 8,5 10,3 81,3 3,4 242 - 0,0 510 996,6
12:13 11,6 8,5 10,3 81,3 3,7 242 - 0,0 510 996,7
12:12 11,5 8,3 10,1 80,5 3,5 245 - 0,0 508 996,6
12:11 11,5 8,4 10,2 81,2 3,5 249 - 0,0 506 996,6
12:10 11,5 8,3 10,1 80,5 3,7 252 - 0,0 505 996,6
12:09 11,5 8,4 10,2 81,3 3,7 256 - 0,0 503 996,6
12:08 11,5 8,4 10,2 81,3 3,7 260 - 0,0 500 996,6
12:07 11,5 8,4 10,2 81,3 3,7 262 - 0,0 442 996,6
12:06 11,5 8,4 10,2 81,3 3,9 262 - 0,0 125 996,6
12:05 11,5 8,2 10,1 80,2 3,7 260 - 0,0 125 996,6
12:04 11,4 8,2 10,0 80,5 3,7 259 - 0,0 82 996,6
12:03 11,5 8,4 10,2 81,3 3,7 258 - 0,0 41 996,6
12:02 11,5 8,4 10,2 81,3 3,7 258 - 0,0 39 996,7
12:01 11,5 8,4 10,2 81,3 3,5 260 - 0,0 39 996,6
12:00 11,4 8,2 10,0 80,5 3,7 262 - 0,0 39 996,6
 
11:59 11,4 8,1 10,0 80,2 3,8 265 - 0,0 37 996,6
11:58 11,4 8,3 10,1 81,0 3,8 267 - 0,0 37 996,6
11:57 11,4 8,1 10,0 80,1 3,6 268 - 0,0 37 996,6
11:56 11,4 8,2 10,0 80,7 3,7 267 - 0,0 37 996,6
11:55 11,4 8,3 10,1 81,3 4,0 265 - 0,0 37 996,6
11:54 11,4 8,3 10,1 81,3 4,3 263 - 0,0 35 996,6
11:53 11,3 8,2 10,0 81,4 4,1 260 - 0,0 35 996,6
11:52 11,3 8,4 10,1 82,2 3,9 257 - 0,0 35 996,6
11:51 11,3 8,3 10,1 81,7 3,8 253 - 0,0 35 996,6
11:50 11,3 8,4 10,1 82,4 3,7 252 - 0,0 35 996,6
11:49 11,3 8,4 10,1 82,4 3,8 254 - 0,0 35 996,6
11:48 11,3 8,4 10,1 82,4 4,2 258 - 0,0 35 996,6
11:47 11,3 8,4 10,1 82,5 4,6 262 - 0,0 36 996,6
11:46 11,3 8,6 10,2 83,4 4,7 264 - 0,0 39 996,6
11:45 11,3 8,5 10,2 82,9 4,7 265 - 0,0 45 996,6
11:44 11,3 8,5 10,2 83,0 4,7 264 - 0,0 47 996,6
11:43 11,3 8,4 10,1 82,4 4,4 262 - 0,0 43 996,6
11:42 11,4 8,5 10,2 82,4 4,1 260 - 0,0 38 996,6
11:41 11,3 8,4 10,1 82,4 3,9 257 - 0,0 35 996,7
11:40 11,3 8,4 10,1 82,4 4,0 255 - 0,0 35 996,6
11:39 11,3 8,4 10,1 82,4 4,1 253 - 0,0 38 996,6
11:38 11,3 8,4 10,1 82,4 4,1 251 - 0,0 39 996,7
11:37 11,3 8,3 10,0 81,6 4,1 249 - 0,0 35 996,7
11:36 11,3 8,2 10,0 81,3 4,0 249 - 0,0 33 996,6
11:35 11,3 8,2 10,0 81,3 3,9 250 - 0,0 33 996,6
11:34 11,3 8,3 10,1 82,0 3,8 252 - 0,0 33 996,6
11:33 11,3 8,5 10,2 83,1 3,8 255 - 0,0 33 996,6
11:32 11,3 8,3 10,1 81,7 3,7 257 - 0,0 33 996,6
11:31 11,3 8,2 10,0 81,4 3,7 259 - 0,0 33 996,6
11:30 11,3 8,6 10,2 83,6 3,9 258 - 0,0 33 996,6
11:29 11,3 8,5 10,1 82,7 3,8 258 - 0,0 33 996,6
11:28 11,3 8,6 10,2 83,6 3,9 257 - 0,0 33 996,6
11:27 11,4 8,7 10,3 83,6 4,0 257 - 0,0 38 996,6
11:26 11,3 8,5 10,2 82,9 3,8 257 - 0,0 49 996,6
11:25 11,3 8,4 10,1 82,4 3,6 258 - 0,0 53 996,6
11:24 11,3 8,4 10,1 82,4 3,5 260 - 0,0 45 996,6
11:23 11,3 8,4 10,1 82,4 3,5 260 - 0,0 37 996,6
11:22 11,4 8,5 10,2 82,4 3,6 260 - 0,0 36 996,6
11:21 11,4 8,4 10,2 81,9 3,6 260 - 0,0 35 996,6
11:20 11,3 8,1 9,9 80,6 3,7 261 - 0,0 33 996,5
11:19 11,3 8,0 9,9 80,1 3,9 262 - 0,0 33 996,5
11:18 11,3 8,2 10,0 81,2 3,9 263 - 0,0 33 996,5
11:17 11,3 8,2 10,0 81,3 3,6 263 - 0,0 33 996,5
11:16 11,3 8,1 10,0 80,9 3,5 263 - 0,0 33 996,5
11:15 11,2 7,9 9,8 80,1 3,5 262 - 0,0 33 996,5
11:14 11,2 8,0 9,9 80,8 3,7 262 - 0,0 32 996,5
11:13 11,2 8,0 9,8 80,6 3,9 261 - 0,0 32 996,4
11:12 11,2 8,1 9,9 81,3 4,0 261 - 0,0 32 996,4
11:11 11,2 8,1 9,9 81,0 3,9 264 - 0,0 32 996,4
11:10 11,2 8,1 9,9 81,0 3,9 268 - 0,0 32 996,4
11:09 11,3 8,4 10,1 82,4 3,8 273 - 0,0 32 996,4
11:08 11,2 8,3 10,0 82,4 3,5 275 - 0,0 32 996,4
11:07 11,3 8,4 10,1 82,4 3,2 275 - 0,0 32 996,4
11:06 11,2 8,2 9,9 81,5 3,3 274 - 0,0 32 996,4
11:05 11,2 8,4 10,1 82,8 3,6 272 - 0,0 32 996,4
11:04 11,3 8,5 10,2 83,1 3,9 270 - 0,0 32 996,4
11:03 11,3 8,4 10,1 82,4 4,0 269 - 0,0 32 996,3
11:02 11,2 8,0 9,9 80,8 3,7 269 - 0,0 32 996,3
11:01 11,2 7,9 9,8 80,1 3,3 269 - 0,0 32 996,3
11:00 11,2 8,1 9,9 81,0 3,0 271 - 0,0 32 996,3
 
10:59 11,1 7,8 9,7 79,9 2,9 271 - 0,0 32 996,3
10:58 11,1 7,6 9,6 79,0 3,1 270 - 0,0 32 996,3
10:57 11,1 7,6 9,6 79,0 3,4 270 - 0,0 32 996,3
10:56 11,1 7,7 9,7 79,8 3,5 269 - 0,0 32 996,3
10:55 11,1 8,0 9,8 81,2 3,5 270 - 0,0 32 996,2
10:54 11,2 8,1 9,9 81,3 3,5 271 - 0,0 32 996,2
10:53 11,1 8,0 9,8 81,3 3,2 273 - 0,0 32 996,2
10:52 11,1 8,0 9,8 81,3 3,0 276 - 0,0 32 996,2
10:51 11,1 8,0 9,8 81,3 3,1 278 - 0,0 32 996,2
10:50 11,1 8,0 9,8 81,3 3,5 279 - 0,0 32 996,1
10:49 11,1 8,0 9,8 81,3 3,5 280 - 0,0 32 996,1
10:48 11,1 8,0 9,8 81,3 3,3 281 - 0,0 32 996,2
10:47 11,1 8,1 9,8 81,6 3,0 282 - 0,0 32 996,1
10:46 11,1 8,2 9,9 82,4 2,7 284 - 0,0 32 996,1
10:45 11,0 8,0 9,8 81,7 2,5 286 - 0,0 32 996,2
10:44 11,0 7,9 9,7 81,3 2,4 288 - 0,0 32 996,1
10:43 11,0 7,9 9,7 81,3 2,3 290 - 0,0 32 996,1
10:42 11,0 8,0 9,7 81,5 2,4 290 - 0,0 32 996,1
10:41 11,0 8,1 9,8 82,4 2,5 290 - 0,0 32 996,1
10:40 10,9 7,9 9,7 81,9 2,4 289 - 0,0 30 996,1
10:39 10,9 7,8 9,6 81,3 2,4 287 - 0,0 30 996,1
10:38 10,9 8,1 9,8 83,0 2,5 284 - 0,0 30 996,1
10:37 11,0 8,3 9,9 83,6 2,7 281 - 0,0 30 996,1
10:36 11,0 8,4 10,0 83,8 2,9 280 - 0,0 30 996,1
10:35 11,0 8,5 10,0 84,4 2,8 279 - 0,0 30 996,1
10:34 11,0 8,3 9,9 83,6 2,6 278 - 0,0 30 996,1
10:33 10,9 8,2 9,8 83,6 2,6 278 - 0,0 30 996,0
10:32 10,9 8,2 9,8 83,6 2,7 279 - 0,0 30 996,1
10:31 10,9 8,2 9,8 83,6 2,9 278 - 0,0 30 996,1
10:30 10,9 8,3 9,9 83,9 2,9 277 - 0,0 30 996,1
10:29 10,9 8,4 10,0 84,8 2,9 277 - 0,0 30 996,1
10:28 10,9 8,3 9,9 84,2 2,9 276 - 0,0 30 996,1
10:27 10,9 8,4 9,9 84,4 2,8 275 - 0,0 30 996,0
10:26 10,9 8,4 10,0 84,8 2,7 274 - 0,0 30 996,0
10:25 10,9 8,3 9,9 83,7 2,9 273 - 0,0 30 996,0
10:24 10,9 8,3 9,9 83,9 3,6 273 - 0,0 30 996,0
10:23 10,9 8,4 10,0 84,8 4,0 274 - 0,0 30 996,0
10:22 10,9 8,4 10,0 84,8 3,9 275 - 0,0 30 996,0
10:21 10,9 8,4 10,0 84,8 3,5 276 - 0,0 30 996,0
10:20 10,9 8,4 10,0 84,8 3,3 278 - 0,0 30 995,9
10:19 11,0 8,5 10,1 84,8 3,4 281 - 0,0 30 995,9
10:18 10,9 8,4 9,9 84,5 3,5 283 - 0,0 30 995,9
10:17 10,9 8,2 9,8 83,6 3,3 282 - 0,0 30 995,9
10:16 10,9 8,2 9,8 83,6 3,3 279 - 0,0 30 995,9
10:15 10,8 8,0 9,7 82,8 3,6 277 - 0,0 30 995,9
10:14 10,8 7,9 9,6 82,4 3,9 275 - 0,0 28 996,0
10:13 10,9 8,2 9,8 83,6 4,0 273 - 0,0 28 996,0
10:12 10,9 8,2 9,8 83,6 3,9 271 - 0,0 28 995,9
10:11 10,9 8,2 9,8 83,6 3,8 272 - 0,0 28 995,9
10:10 10,9 8,2 9,8 83,6 3,7 274 - 0,0 28 995,9
10:09 10,9 8,2 9,8 83,6 3,6 276 - 0,0 28 995,9
10:08 10,9 8,2 9,8 83,6 3,9 278 - 0,0 28 995,9
10:07 10,9 8,0 9,7 82,5 3,8 281 - 0,0 28 995,9
10:06 10,8 8,0 9,7 82,8 3,5 285 - 0,0 28 995,8
10:05 10,9 8,1 9,8 83,1 3,1 286 - 0,0 28 995,8
10:04 10,8 7,9 9,6 82,4 3,0 286 - 0,0 28 995,8
10:03 10,8 7,9 9,6 82,4 3,2 285 - 0,0 28 995,8
10:02 10,8 7,9 9,6 82,4 3,6 284 - 0,0 28 995,8
10:01 10,8 8,0 9,6 82,7 3,7 282 - 0,0 28 995,8
10:00 10,8 8,1 9,7 83,6 3,7 281 - 0,0 28 995,7
 
09:59 10,8 8,1 9,7 83,6 3,7 280 - 0,0 28 995,7
09:58 10,8 8,1 9,7 83,6 3,8 281 - 0,0 28 995,7
09:57 10,8 8,1 9,7 83,6 3,8 280 - 0,0 28 995,8
09:56 10,9 8,2 9,8 83,6 3,9 280 - 0,0 28 995,7
09:55 10,8 8,2 9,8 83,8 4,0 279 - 0,0 28 995,7
09:54 10,8 8,3 9,9 84,8 3,8 278 - 0,0 29 995,7
09:53 10,9 8,4 10,0 84,8 3,7 278 - 0,0 32 995,7
09:52 10,8 8,3 9,9 84,8 3,4 279 - 0,0 30 995,7
09:51 10,8 8,3 9,9 84,8 3,2 281 - 0,0 28 995,7
09:50 10,8 8,2 9,7 83,7 3,0 285 - 0,0 28 995,7
09:49 10,7 8,0 9,6 83,6 3,0 288 - 0,0 28 995,7
09:48 10,7 8,0 9,6 83,6 2,9 290 - 0,0 28 995,7
09:47 10,7 8,0 9,6 83,6 2,8 292 - 0,0 28 995,6
09:46 10,7 8,0 9,6 83,6 2,5 291 - 0,0 28 995,7
09:45 10,6 7,9 9,5 83,6 2,3 290 - 0,0 28 995,6
09:44 10,6 7,9 9,5 83,6 2,3 289 - 0,0 28 995,6
09:43 10,6 8,0 9,6 83,9 2,6 288 - 0,0 28 995,6
09:42 10,6 8,1 9,7 84,8 2,8 286 - 0,0 28 995,6
09:41 10,6 8,1 9,7 84,8 2,7 285 - 0,0 28 995,6
09:40 10,6 8,1 9,7 84,8 2,7 284 - 0,0 30 995,7
09:39 10,5 8,0 9,6 84,8 2,9 284 - 0,0 31 995,6
09:38 10,5 8,0 9,6 84,8 3,1 281 - 0,0 33 995,6
09:37 10,4 8,0 9,5 85,1 3,3 278 - 0,0 36 995,6
09:36 10,5 8,3 9,7 86,4 3,5 275 - 0,0 39 995,6
09:35 10,5 8,4 9,8 87,1 3,2 272 - 0,0 44 995,6
09:34 10,5 8,4 9,8 87,1 2,5 266 - 0,0 48 995,6
09:33 10,6 8,5 9,9 87,1 1,9 257 - 0,0 43 995,6
09:32 10,6 8,4 9,8 86,1 1,7 250 - 0,0 37 995,6
09:31 10,6 8,3 9,8 85,9 1,6 250 - 0,0 43 995,6
09:30 10,7 8,4 9,9 85,9 2,1 254 - 0,0 46 995,6
09:29 10,7 8,3 9,8 85,2 2,7 258 - 0,0 37 995,5
09:28 10,6 8,1 9,7 84,8 3,4 261 - 0,0 30 995,5
09:27 10,7 8,4 9,9 85,8 3,7 265 - 0,0 28 995,5
09:26 10,7 8,4 9,8 85,7 3,9 268 - 0,0 28 995,5
09:25 10,6 8,1 9,7 84,8 3,8 270 - 0,0 28 995,5
09:24 10,6 8,0 9,6 84,2 3,6 272 - 0,0 28 995,5
09:23 10,6 8,1 9,6 84,3 3,6 273 - 0,0 28 995,5
09:22 10,6 8,2 9,7 85,1 3,8 275 - 0,0 28 995,5
09:21 10,6 8,3 9,8 85,8 3,8 277 - 0,0 28 995,5
09:20 10,6 8,3 9,8 85,9 3,6 279 - 0,0 28 995,5
09:19 10,6 8,3 9,8 85,9 3,1 281 - 0,0 28 995,5
09:18 10,6 8,3 9,8 85,9 2,5 285 - 0,0 28 995,5
09:17 10,6 8,3 9,8 85,9 2,2 288 - 0,0 26 995,5
09:16 10,5 8,2 9,7 85,9 2,2 290 - 0,0 26 995,5
09:15 10,5 8,2 9,7 85,9 2,5 290 - 0,0 27 995,5
09:14 10,5 8,2 9,7 85,9 2,8 289 - 0,0 28 995,5
09:13 10,4 8,1 9,6 85,9 2,8 286 - 0,0 29 995,5
09:12 10,4 8,1 9,6 85,9 2,6 283 - 0,0 34 995,5
09:11 10,4 8,1 9,6 85,9 2,4 279 - 0,0 35 995,5
09:10 10,4 8,1 9,6 85,9 2,1 277 - 0,0 33 995,5
09:09 10,3 8,1 9,5 85,9 1,8 275 - 0,0 32 995,5
09:08 10,3 8,0 9,4 85,6 1,8 273 - 0,0 34 995,5
09:07 10,3 7,8 9,3 84,8 1,6 271 - 0,0 35 995,5
09:06 10,4 7,9 9,4 84,8 1,3 271 - 0,0 35 995,6
09:05 10,5 8,0 9,6 84,8 1,0 268 - 0,0 33 995,4
09:04 10,5 8,0 9,6 84,8 1,3 263 - 0,0 32 995,4
09:03 10,6 8,1 9,7 84,8 2,0 261 - 0,0 32 995,4
09:02 10,6 8,1 9,6 84,5 2,5 262 - 0,0 32 995,4
09:01 10,6 7,9 9,5 83,6 2,6 265 - 0,0 31 995,4
09:00 10,6 7,9 9,5 83,6 2,4 268 - 0,0 28 995,4
 
08:59 10,6 7,9 9,5 83,6 2,5 273 - 0,0 28 995,4
08:58 10,6 7,9 9,5 83,6 2,6 281 - 0,0 26 995,3
08:56 10,6 7,9 9,5 83,6 2,6 286 - 0,0 26 995,4
08:55 10,6 7,9 9,5 83,6 2,6 286 - 0,0 26 995,4
08:54 10,6 7,9 9,5 83,6 2,7 285 - 0,0 26 995,4
08:53 10,6 7,9 9,5 83,6 2,4 284 - 0,0 26 995,3
08:52 10,5 7,7 9,3 82,7 2,0 284 - 0,0 26 995,3
08:51 10,5 7,6 9,3 82,4 2,0 284 - 0,0 26 995,3
08:50 10,5 7,6 9,3 82,4 2,2 286 - 0,0 26 995,4
08:49 10,4 7,5 9,2 82,4 2,2 289 - 0,0 26 995,3
08:48 10,4 7,5 9,2 82,4 2,3 291 - 0,0 26 995,3
08:47 10,4 7,5 9,2 82,4 2,4 293 - 0,0 26 995,3
08:46 10,4 7,5 9,2 82,4 2,5 294 - 0,0 26 995,3
08:45 10,4 7,5 9,2 82,4 2,5 296 - 0,0 26 995,3
08:44 10,4 7,5 9,2 82,4 2,3 297 - 0,0 26 995,3
08:43 10,4 7,5 9,2 82,4 2,1 298 - 0,0 26 995,3
08:42 10,4 7,7 9,3 83,4 2,1 300 - 0,0 33 995,3
08:41 10,4 7,7 9,3 83,6 2,2 301 - 0,0 47 995,2
08:40 10,4 7,7 9,3 83,6 2,3 300 - 0,0 50 995,3
08:39 10,4 7,7 9,3 83,6 2,1 296 - 0,0 43 995,2
08:38 10,4 7,7 9,3 83,6 2,0 293 - 0,0 39 995,3
08:37 10,4 7,7 9,3 83,6 2,0 290 - 0,0 51 995,2
08:36 10,3 7,6 9,2 83,6 2,4 289 - 0,0 66 995,2
08:35 10,3 7,8 9,3 84,5 2,5 287 - 0,0 79 995,2
08:34 10,3 7,8 9,3 84,8 2,4 287 - 0,0 84 995,2
08:33 10,3 7,8 9,3 84,5 2,2 287 - 0,0 76 995,1
08:32 10,2 7,6 9,2 84,1 2,2 288 - 0,0 72 995,2
08:31 10,1 7,7 9,1 84,8 2,4 289 - 0,0 75 995,1
08:30 10,1 7,7 9,1 84,8 2,6 290 - 0,0 70 995,1
08:29 10,0 7,6 9,0 84,8 2,1 291 - 0,0 63 995,1
08:28 10,0 7,8 9,2 85,9 1,7 293 - 0,0 55 995,1
08:27 10,0 7,7 9,1 85,7 1,6 293 - 0,0 50 995,1
08:26 9,9 7,5 8,9 84,8 1,8 292 - 0,0 46 995,1
08:25 9,9 7,5 8,9 84,8 1,5 291 - 0,0 40 995,1
08:24 9,9 7,5 8,9 84,8 1,2 290 - 0,0 33 995,1
08:23 10,0 7,4 9,0 83,8 0,8 289 - 0,0 27 995,1
08:22 10,0 7,2 8,8 82,5 0,4 288 - 0,0 24 995,1
08:21 10,1 7,3 9,0 82,8 0,2 291 - 0,0 22 995,0
08:20 10,2 7,5 9,1 83,6 0,4 299 - 0,0 20 995,0
08:19 10,3 7,6 9,2 83,6 0,6 311 - 0,0 19 995,0
08:18 10,3 7,6 9,2 83,6 0,6 318 - 0,0 18 995,0
08:17 10,4 7,7 9,3 83,6 0,6 322 - 0,0 18 995,0
08:16 10,4 7,7 9,3 83,6 0,7 325 - 0,0 17 995,0
08:15 10,4 7,7 9,3 83,6 1,2 326 - 0,0 16 995,0
08:14 10,5 7,8 9,4 83,6 1,5 324 - 0,0 16 995,0
08:13 10,5 7,7 9,4 82,8 1,6 320 - 0,0 16 995,0
08:12 10,4 7,7 9,3 83,2 1,5 315 - 0,0 16 995,0
08:11 10,4 7,6 9,2 82,7 1,7 311 - 0,0 15 995,0
08:10 10,4 7,5 9,2 82,4 2,1 307 - 0,0 14 995,0
08:09 10,4 7,6 9,3 82,8 2,5 305 - 0,0 14 995,0
08:08 10,5 7,8 9,4 83,6 2,9 305 - 0,0 14 995,0
08:07 10,5 7,8 9,4 83,6 2,9 305 - 0,0 14 994,9
08:06 10,5 7,8 9,4 83,6 2,7 306 - 0,0 14 994,9
08:05 10,4 7,7 9,3 83,6 2,4 305 - 0,0 12 994,9
08:04 10,4 7,7 9,3 83,6 2,6 304 - 0,0 12 994,9
08:03 10,4 7,7 9,3 83,6 2,7 303 - 0,0 12 994,9
08:02 10,4 7,7 9,3 83,6 2,8 302 - 0,0 12 994,9
08:01 10,4 7,7 9,3 83,6 2,8 303 - 0,0 12 994,9
08:00 10,4 7,7 9,3 83,6 2,8 304 - 0,0 12 995,0
 
07:59 10,4 7,7 9,3 83,6 2,7 306 - 0,0 12 995,0
07:58 10,4 7,7 9,3 83,6 2,7 306 - 0,0 12 994,9
07:57 10,4 7,7 9,3 83,6 2,8 304 - 0,0 11 995,0
07:56 10,4 7,7 9,3 83,6 3,0 301 - 0,0 11 994,9
07:55 10,4 7,6 9,3 82,9 3,3 299 - 0,0 11 995,0
07:54 10,4 7,5 9,2 82,4 3,5 297 - 0,0 11 994,9
07:53 10,4 7,7 9,3 83,5 3,6 297 - 0,0 11 995,0
07:52 10,4 7,5 9,2 82,4 3,5 298 - 0,0 10 995,0
07:51 10,4 7,6 9,3 82,9 3,4 299 - 0,0 9 995,0
07:50 10,4 7,6 9,3 83,0 3,2 301 - 0,0 9 995,0
07:49 10,4 7,5 9,2 82,4 3,2 302 - 0,0 9 995,0
07:48 10,4 7,5 9,2 82,4 3,2 301 - 0,0 7 995,0
07:47 10,4 7,5 9,2 82,4 3,3 301 - 0,0 7 995,0
07:46 10,4 7,5 9,2 82,4 3,2 302 - 0,0 7 995,0
07:45 10,4 7,6 9,3 82,9 3,2 305 - 0,0 7 995,0
07:44 10,4 7,6 9,3 83,0 3,2 308 - 0,0 7 995,0
07:43 10,4 7,5 9,2 82,4 3,0 310 - 0,0 5 995,0
07:42 10,4 7,5 9,2 82,4 2,9 310 - 0,0 5 995,0
07:41 10,4 7,7 9,3 83,5 3,0 309 - 0,0 5 994,9
07:40 10,4 7,5 9,2 82,4 3,1 307 - 0,0 5 995,0
07:39 10,4 7,5 9,2 82,4 3,0 305 - 0,0 5 995,0
07:38 10,4 7,5 9,2 82,4 3,3 304 - 0,0 5 995,0
07:37 10,4 7,7 9,3 83,2 3,4 304 - 0,0 0 994,9
07:36 10,4 7,7 9,3 83,6 3,3 304 - 0,0 0 994,9
07:35 10,4 7,6 9,2 82,5 3,2 306 - 0,0 0 994,9
07:34 10,4 7,5 9,2 82,4 3,4 307 - 0,0 0 995,0
07:33 10,3 7,4 9,1 82,4 3,6 308 - 0,0 0 995,0
07:32 10,3 7,4 9,1 82,4 3,5 307 - 0,0 0 994,9
07:31 10,4 7,7 9,3 83,4 3,2 305 - 0,0 0 995,0
07:30 10,4 7,8 9,4 83,8 3,1 305 - 0,0 0 995,0
07:29 10,4 7,9 9,4 84,5 3,2 306 - 0,0 0 995,0
07:28 10,4 7,7 9,3 83,6 3,3 305 - 0,0 0 994,9
07:27 10,3 7,6 9,2 83,6 3,2 305 - 0,0 0 994,9
07:26 10,3 7,6 9,2 83,6 3,1 307 - 0,0 0 994,9
07:25 10,3 7,6 9,2 83,6 3,0 309 - 0,0 0 994,9
07:24 10,2 7,5 9,1 83,6 2,9 309 - 0,0 0 995,0
07:23 10,3 7,7 9,3 83,8 2,7 309 - 0,0 0 994,9
07:22 10,2 7,7 9,2 84,8 2,6 308 - 0,0 0 994,9
07:21 10,2 7,7 9,2 84,8 2,6 306 - 0,0 0 994,9
07:20 10,1 7,7 9,1 84,8 2,6 304 - 0,0 0 994,9
07:19 10,1 7,5 9,1 83,9 2,5 303 - 0,0 0 995,0
07:18 10,0 7,5 9,0 84,6 2,3 303 - 0,0 0 994,9
07:17 10,0 7,6 9,1 85,0 2,4 302 - 0,0 0 994,9
07:16 9,9 7,6 9,0 85,6 2,6 301 - 0,0 0 994,9
07:15 9,8 7,4 8,8 84,8 2,6 298 - 0,0 0 994,9
07:14 9,7 7,3 8,7 84,8 2,4 295 - 0,0 0 994,9
07:13 9,6 7,3 8,7 85,7 2,4 291 - 0,0 0 995,0
07:12 9,5 7,1 8,6 84,9 2,0 286 - 0,0 0 994,9
07:11 9,6 7,0 8,5 83,6 1,2 280 - 0,0 0 995,0
07:10 9,7 7,1 8,6 83,6 0,4 272 - 0,0 0 994,9
07:09 9,8 7,2 8,7 83,6 0,3 266 - 0,0 0 994,9
07:08 9,8 7,2 8,7 83,6 0,6 265 - 0,0 0 995,0
07:07 10,0 7,2 8,8 82,7 0,7 273 - 0,0 0 994,9
07:06 10,1 7,2 8,9 82,4 0,7 283 - 0,0 0 994,9
07:05 10,2 7,3 9,0 82,4 0,7 291 - 0,0 0 994,9
07:04 10,2 7,3 9,0 82,4 1,0 293 - 0,0 0 994,9
07:03 10,2 7,4 9,1 83,0 1,5 291 - 0,0 0 994,9
07:02 10,3 7,6 9,2 83,6 2,2 287 - 0,0 0 995,0
07:01 10,3 7,6 9,2 83,6 2,5 284 - 0,0 0 994,9
07:00 10,3 7,8 9,3 84,6 2,4 282 - 0,0 0 994,9
 
06:59 10,3 7,6 9,2 83,6 2,3 283 - 0,0 0 994,9
06:58 10,2 7,5 9,1 83,1 2,3 285 - 0,0 0 994,9
06:57 10,2 7,3 9,0 82,4 2,3 290 - 0,0 0 994,9
06:56 10,2 7,5 9,1 83,2 2,3 296 - 0,0 0 994,9
06:55 10,2 7,5 9,1 83,6 2,3 301 - 0,0 0 994,9
06:54 10,2 7,4 9,0 82,5 2,2 306 - 0,0 0 994,9
06:53 10,2 7,4 9,1 82,8 2,3 308 - 0,0 0 994,9
06:52 10,2 7,5 9,1 83,6 2,3 308 - 0,0 0 994,9
06:51 10,2 7,5 9,1 83,6 2,4 307 - 0,0 0 994,9
06:50 10,2 7,7 9,2 84,4 2,6 305 - 0,0 0 994,8
06:49 10,2 7,7 9,2 84,6 3,0 300 - 0,0 0 994,8
06:48 10,2 7,6 9,2 83,8 3,2 296 - 0,0 0 994,9
06:47 10,2 7,7 9,2 84,8 3,2 293 - 0,0 0 994,8
06:46 10,2 7,7 9,2 84,8 3,2 290 - 0,0 0 994,8
06:45 10,2 7,7 9,2 84,8 3,2 287 - 0,0 0 994,8
06:44 10,2 7,9 9,3 85,7 3,2 286 - 0,0 0 994,8
06:43 10,2 8,0 9,4 85,9 3,3 286 - 0,0 0 994,8
06:42 10,2 8,0 9,4 85,9 3,1 286 - 0,0 0 994,8
06:41 10,1 7,9 9,3 85,9 3,1 288 - 0,0 0 994,8
06:40 10,1 8,0 9,3 86,5 3,2 290 - 0,0 0 994,8
06:39 10,1 8,1 9,4 87,1 3,2 292 - 0,0 0 994,8
06:38 10,1 8,1 9,4 87,1 3,0 292 - 0,0 0 994,8
06:37 10,1 7,9 9,3 86,1 2,8 291 - 0,0 0 994,8
06:36 10,1 7,9 9,3 86,2 3,0 290 - 0,0 0 994,7
06:35 10,1 8,1 9,4 87,1 3,2 289 - 0,0 0 994,8
06:34 10,1 8,1 9,4 87,1 3,2 289 - 0,0 0 994,7
06:33 10,0 8,0 9,3 87,1 3,2 288 - 0,0 0 994,7
06:32 10,0 8,0 9,3 87,1 3,3 288 - 0,0 0 994,7
06:31 10,0 8,0 9,3 87,1 3,3 289 - 0,0 0 994,7
06:30 9,9 7,9 9,2 87,1 3,3 289 - 0,0 0 994,7
06:29 9,9 7,9 9,2 87,1 3,3 289 - 0,0 0 994,7
06:28 9,9 7,9 9,2 87,1 3,2 288 - 0,0 0 994,7
06:27 9,8 7,8 9,1 87,1 2,8 288 - 0,0 0 994,7
06:26 9,8 7,9 9,2 88,1 2,6 288 - 0,0 0 994,7
06:25 9,8 8,0 9,2 88,4 2,8 288 - 0,0 0 994,7
06:24 9,8 8,2 9,3 89,5 3,2 290 - 0,0 0 994,7
06:23 9,8 8,2 9,3 89,5 3,2 291 - 0,0 0 994,7
06:22 9,7 8,2 9,2 90,1 3,1 293 - 0,0 0 994,7
06:21 9,6 8,2 9,2 90,7 3,2 294 - 0,0 0 994,7
06:20 9,5 8,1 9,1 90,7 3,3 294 - 0,0 0 994,7
06:19 9,4 8,0 9,0 90,9 3,2 293 - 0,0 0 994,7
06:18 9,2 8,0 8,9 92,0 3,4 292 - 0,0 0 994,7
06:17 8,9 7,7 8,6 92,0 3,6 290 - 0,0 0 994,7
06:16 8,5 7,3 8,2 92,0 3,0 285 - 0,0 0 994,7
06:15 8,2 7,0 7,9 92,0 1,7 279 - 0,0 0 994,8
06:14 8,2 7,0 7,9 92,0 0,8 271 - 0,0 0 994,8
06:13 8,3 7,1 8,0 92,0 0,8 256 - 0,0 0 994,8
06:12 8,3 7,1 8,0 92,0 0,5 228 - 0,0 0 994,8
06:11 8,3 7,1 8,0 92,0 0,2 207 - 0,0 0 994,8
06:10 8,4 7,2 8,1 92,0 0,3 202 - 0,0 0 994,8
06:09 8,3 7,1 8,0 92,0 0,7 199 - 0,0 0 994,8
06:08 8,3 6,9 7,9 91,0 1,1 196 - 0,0 0 994,8
06:07 8,3 6,9 7,9 90,7 1,2 195 - 0,0 0 994,8
06:06 8,3 6,9 7,9 90,7 1,1 193 - 0,0 0 994,8
06:05 8,3 7,0 7,9 91,3 0,8 192 - 0,0 0 994,8
06:04 8,3 7,1 8,0 92,0 0,5 192 - 0,0 0 994,8
06:03 8,3 7,1 8,0 92,0 0,6 194 - 0,0 0 994,8
06:02 8,3 7,1 8,0 92,0 0,7 196 - 0,0 0 994,8
06:01 8,3 7,1 8,0 92,0 0,8 198 - 0,0 0 994,8
06:00 8,4 7,2 8,1 92,0 0,9 201 - 0,0 0 994,8
 
05:59 8,3 7,1 8,0 92,0 1,0 202 - 0,0 0 994,8
05:58 8,3 7,1 8,0 92,0 1,1 204 - 0,0 0 994,8
05:57 8,3 7,1 8,0 92,0 0,9 205 - 0,0 0 994,8
05:56 8,3 7,1 8,0 92,0 0,7 207 - 0,0 0 994,9
05:55 8,3 7,1 8,0 92,0 0,7 211 - 0,0 0 994,8
05:54 8,3 7,1 8,0 92,0 0,7 216 - 0,0 0 994,8
05:53 8,3 7,1 8,0 92,0 0,5 222 - 0,0 0 994,8
05:52 8,3 7,1 8,0 92,0 0,6 228 - 0,0 0 994,8
05:51 8,2 7,0 7,9 92,0 0,5 232 - 0,0 0 994,8
05:50 8,2 7,0 7,9 92,0 0,5 232 - 0,0 0 994,8
05:49 8,2 6,8 7,8 91,0 0,4 229 - 0,0 0 994,9
05:48 8,1 6,8 7,7 91,6 0,5 224 - 0,0 0 994,8
05:47 8,2 6,8 7,8 90,7 0,3 215 - 0,0 0 994,9
05:46 8,2 6,8 7,8 90,7 0,1 206 - 0,0 0 994,9
05:45 8,2 6,9 7,8 91,7 0,1 198 - 0,0 0 994,9
05:44 8,2 7,0 7,9 92,0 0,2 195 - 0,0 0 994,9
05:43 8,3 7,0 7,9 91,7 0,4 198 - 0,0 0 994,9
05:42 8,2 6,8 7,8 90,7 0,5 200 - 0,0 0 994,9
05:41 8,2 6,8 7,8 90,7 0,4 198 - 0,0 0 994,9
05:40 8,2 6,8 7,8 90,7 0,4 194 - 0,0 0 994,9
05:39 8,1 6,7 7,6 90,7 0,3 189 - 0,0 0 994,9
05:38 8,1 6,7 7,6 90,7 0,3 184 - 0,0 0 994,9
05:37 8,2 6,8 7,8 90,7 0,3 179 - 0,0 0 994,9
05:36 8,2 6,8 7,8 90,7 0,3 177 - 0,0 0 994,9
05:35 8,2 6,8 7,8 90,7 0,2 176 - 0,0 0 994,9
05:34 8,2 6,8 7,8 90,7 0,4 177 - 0,0 0 994,9
05:33 8,2 6,8 7,8 90,7 0,5 176 - 0,0 0 994,9
05:32 8,2 6,8 7,8 90,7 0,5 177 - 0,0 0 994,9
05:31 8,2 6,8 7,8 90,7 0,4 179 - 0,0 0 994,9
05:30 8,2 6,8 7,8 90,7 0,4 182 - 0,0 0 994,9
05:29 8,2 6,8 7,8 90,7 0,4 188 - 0,0 0 994,9
05:28 8,2 6,8 7,8 90,7 0,5 198 - 0,0 0 994,9
05:27 8,2 6,8 7,8 90,7 0,6 206 - 0,0 0 994,9
05:26 8,2 6,8 7,8 90,7 0,8 210 - 0,0 0 994,9
05:25 8,3 6,9 7,9 90,7 1,1 211 - 0,0 0 994,8
05:24 8,3 6,9 7,9 90,7 1,0 210 - 0,0 0 994,9
05:23 8,3 6,9 7,9 90,7 0,9 207 - 0,0 0 994,8
05:22 8,3 6,9 7,9 90,7 0,8 202 - 0,0 0 994,8
05:21 8,3 6,9 7,9 90,7 0,8 197 - 0,0 0 994,9
05:20 8,3 6,9 7,9 90,7 0,9 192 - 0,0 0 994,8
05:19 8,3 6,9 7,9 90,7 1,2 188 - 0,0 0 994,9
05:18 8,3 6,9 7,9 90,7 1,3 185 - 0,0 0 994,8
05:17 8,3 6,9 7,9 90,7 0,8 183 - 0,0 0 994,8
05:16 8,4 7,0 8,0 90,7 0,4 179 - 0,0 0 994,8
05:15 8,4 7,0 8,0 90,7 0,2 172 - 0,0 0 994,8
05:14 8,4 7,0 8,0 90,7 0,1 169 - 0,0 0 994,8
05:13 8,4 6,9 7,9 90,4 0,3 174 - 0,0 0 994,8
05:12 8,4 6,9 7,9 90,1 0,7 181 - 0,0 0 994,8
05:11 8,4 6,9 7,9 90,0 0,8 187 - 0,0 0 994,8
05:10 8,4 6,8 7,9 89,5 0,5 193 - 0,0 0 994,8
05:09 8,4 6,8 7,9 89,5 0,4 199 - 0,0 0 994,7
05:08 8,4 6,8 7,9 89,5 0,4 203 - 0,0 0 994,8
05:07 8,5 6,9 8,0 89,5 0,4 203 - 0,0 0 994,7
05:06 8,5 6,9 8,0 89,5 0,4 199 - 0,0 0 994,8
05:05 8,5 6,9 8,0 89,5 0,4 194 - 0,0 0 994,8
05:04 8,6 7,0 8,1 89,5 0,4 188 - 0,0 0 994,8
05:03 8,6 7,0 8,1 89,5 0,3 183 - 0,0 0 994,8
05:02 8,7 7,1 8,2 89,5 0,2 181 - 0,0 0 994,7
05:01 8,7 7,1 8,2 89,5 0,2 182 - 0,0 0 994,7
05:00 8,8 7,2 8,3 89,5 0,2 187 - 0,0 0 994,7
 
04:59 8,8 7,2 8,3 89,5 0,3 191 - 0,0 0 994,7
04:58 8,8 7,2 8,3 89,5 0,3 189 - 0,0 0 994,7
04:57 8,9 7,3 8,4 89,5 0,4 184 - 0,0 0 994,7
04:56 8,9 7,3 8,4 89,5 0,5 181 - 0,0 0 994,7
04:55 8,9 7,3 8,4 89,5 0,7 180 - 0,0 0 994,7
04:54 9,0 7,4 8,5 89,5 0,8 179 - 0,0 0 994,6
04:53 9,0 7,2 8,4 88,7 0,9 178 - 0,0 0 994,6
04:52 9,0 7,2 8,4 88,3 0,8 179 - 0,0 0 994,6
04:51 9,0 7,2 8,4 88,3 0,6 181 - 0,0 0 994,6
04:50 9,1 7,3 8,5 88,3 0,5 185 - 0,0 0 994,7
04:49 9,1 7,3 8,5 88,3 0,4 187 - 0,0 0 994,6
04:48 9,2 7,4 8,6 88,3 0,4 190 - 0,0 0 994,7
04:47 9,2 7,4 8,6 88,3 0,4 191 - 0,0 0 994,7
04:46 9,3 7,5 8,7 88,3 0,5 191 - 0,0 0 994,7
04:45 9,4 7,6 8,8 88,3 0,3 191 - 0,0 0 994,6
04:44 9,4 7,6 8,8 88,3 0,2 191 - 0,0 0 994,6
04:43 9,5 7,7 8,9 88,3 0,2 194 - 0,0 0 994,6
04:42 9,5 7,7 8,9 88,3 0,5 203 - 0,0 0 994,6
04:41 9,6 7,8 9,0 88,3 0,7 216 - 0,0 0 994,6
04:40 9,7 7,9 9,1 88,3 1,0 230 - 0,0 0 994,6
04:38 9,9 8,1 9,3 88,3 1,7 241 - 0,0 0 994,6
04:37 10,0 8,2 9,4 88,3 2,4 247 - 0,0 0 994,6
04:36 9,9 8,1 9,3 88,3 2,8 251 - 0,0 0 994,6
04:35 10,0 8,2 9,4 88,3 2,8 255 - 0,0 0 994,6
04:34 10,1 8,3 9,5 88,3 3,1 257 - 0,0 0 994,6
04:33 10,0 8,2 9,4 88,3 3,3 257 - 0,0 0 994,5
04:32 10,0 8,2 9,4 88,3 3,3 257 - 0,0 0 994,6
04:31 10,0 8,2 9,4 88,3 3,3 258 - 0,0 0 994,6
04:30 10,0 8,2 9,4 88,3 3,4 260 - 0,0 0 994,6
04:29 9,9 8,1 9,3 88,3 3,4 261 - 0,0 0 994,5
04:28 9,9 8,1 9,3 88,3 3,1 262 - 0,0 0 994,6
04:27 9,9 8,1 9,3 88,3 2,8 264 - 0,0 0 994,6
04:26 9,8 8,0 9,2 88,3 2,6 265 - 0,0 0 994,6
04:25 9,8 8,0 9,2 88,3 2,7 265 - 0,0 0 994,5
04:24 9,8 8,0 9,2 88,3 3,1 266 - 0,0 0 994,5
04:23 9,7 8,0 9,2 89,3 3,5 266 - 0,0 0 994,5
04:22 9,7 8,1 9,2 89,5 3,5 266 - 0,0 0 994,6
04:21 9,7 8,1 9,2 89,5 3,3 266 - 0,0 0 994,5
04:20 9,6 8,0 9,1 90,0 3,1 266 - 0,0 0 994,5
04:19 9,6 8,2 9,2 90,7 3,0 264 - 0,0 0 994,6
04:18 9,5 8,1 9,1 90,7 2,9 263 - 0,0 0 994,5
04:17 9,5 8,1 9,1 90,7 2,6 261 - 0,0 0 994,6
04:16 9,5 8,1 9,1 90,7 2,3 260 - 0,0 0 994,5
04:15 9,4 8,0 9,0 90,7 2,5 258 - 0,0 0 994,5
04:14 9,2 7,7 8,7 90,1 2,8 254 - 0,0 0 994,5
04:13 9,1 7,5 8,6 89,5 2,5 250 - 0,0 0 994,5
04:12 9,1 7,5 8,6 89,5 2,1 246 - 0,0 0 994,6
04:11 9,1 7,5 8,6 89,5 1,9 238 - 0,0 0 994,5
04:10 9,1 7,5 8,6 89,5 1,9 230 - 0,0 0 994,5
04:09 9,2 7,6 8,7 89,5 1,9 224 - 0,0 0 994,6
04:08 9,2 7,6 8,7 89,5 2,1 220 - 0,0 0 994,5
04:07 9,2 7,6 8,7 89,5 2,2 217 - 0,0 0 994,5
04:06 9,2 7,6 8,7 89,5 2,1 214 - 0,0 0 994,5
04:05 9,2 7,6 8,7 89,5 1,7 213 - 0,0 0 994,5
04:04 9,2 7,6 8,7 89,5 1,5 211 - 0,0 0 994,5
04:03 9,2 7,6 8,7 89,5 1,6 210 - 0,0 0 994,5
04:02 9,2 7,6 8,7 89,5 1,5 209 - 0,0 0 994,5
04:01 9,2 7,6 8,7 89,5 1,4 210 - 0,0 0 994,5
04:00 9,2 7,4 8,6 88,7 1,4 210 - 0,0 0 994,5
 
03:59 9,2 7,4 8,6 88,3 1,2 208 - 0,0 0 994,5
03:57 9,3 7,5 8,7 88,3 0,8 207 - 0,0 0 994,4
03:56 9,3 7,5 8,7 88,3 0,9 205 - 0,0 0 994,4
03:55 9,4 7,6 8,8 88,3 1,2 202 - 0,0 0 994,5
03:54 9,4 7,6 8,8 88,3 1,3 202 - 0,0 0 994,5
03:53 9,5 7,7 8,9 88,3 1,2 203 - 0,0 0 994,5
03:52 9,5 7,7 8,9 88,3 1,2 204 - 0,0 0 994,5
03:51 9,6 7,8 9,0 88,3 1,3 206 - 0,0 0 994,5
03:50 9,6 7,8 9,0 88,3 1,5 208 - 0,0 0 994,5
03:49 9,7 7,9 9,1 88,3 1,4 213 - 0,0 0 994,5
03:48 9,8 8,0 9,2 88,3 1,5 221 - 0,0 0 994,5
03:47 9,8 8,0 9,2 88,3 1,5 228 - 0,0 0 994,5
03:46 9,8 8,0 9,2 88,3 1,8 234 - 0,0 0 994,5
03:45 9,9 8,1 9,3 88,3 2,3 238 - 0,0 0 994,4
03:44 9,8 7,9 9,1 87,7 2,7 239 - 0,0 0 994,4
03:43 9,9 7,9 9,2 87,1 2,6 239 - 0,0 0 994,5
03:42 9,9 7,9 9,2 87,2 2,5 239 - 0,0 0 994,4
03:41 10,0 8,1 9,4 88,2 2,6 239 - 0,0 0 994,4
03:40 10,0 8,0 9,3 87,1 2,9 240 - 0,0 0 994,5
03:39 10,0 8,0 9,3 87,1 3,1 243 - 0,0 0 994,4
03:38 10,0 8,0 9,3 87,1 3,3 246 - 0,0 0 994,4
03:37 9,9 7,9 9,2 87,1 3,5 249 - 0,0 0 994,4
03:36 9,9 7,7 9,1 86,3 3,6 252 - 0,0 0 994,4
03:35 9,9 7,8 9,2 87,0 3,5 254 - 0,0 0 994,4
03:34 9,9 7,7 9,1 85,9 3,4 256 - 0,0 0 994,4
03:33 9,9 7,7 9,1 85,9 3,4 258 - 0,0 0 994,4
03:32 9,9 7,7 9,1 85,9 3,5 259 - 0,0 0 994,4
03:31 9,9 7,8 9,1 86,8 3,7 260 - 0,0 0 994,4
03:30 10,0 7,8 9,2 86,2 3,7 262 - 0,0 0 994,4
03:29 10,0 8,0 9,3 87,1 3,7 263 - 0,0 0 994,4
03:28 10,0 8,0 9,3 87,1 3,8 264 - 0,0 0 994,4
03:27 10,0 8,0 9,3 87,1 4,0 265 - 0,0 0 994,4
03:26 10,0 8,0 9,3 87,1 4,0 267 - 0,0 0 994,4
03:25 10,0 8,0 9,3 87,1 3,9 267 - 0,0 0 994,5
03:24 10,0 8,0 9,3 87,1 3,9 265 - 0,0 0 994,4
03:23 10,0 7,9 9,3 87,0 3,9 262 - 0,0 0 994,5
03:22 9,9 7,7 9,1 86,3 4,0 256 - 0,0 0 994,5
03:21 9,9 7,9 9,2 87,1 4,0 249 - 0,0 0 994,4
03:20 9,9 7,7 9,1 86,4 3,7 242 - 0,0 0 994,5
03:19 9,9 7,8 9,1 86,9 3,7 238 - 0,0 0 994,5
03:18 9,9 7,7 9,1 86,2 3,7 236 - 0,0 0 994,5
03:16 9,9 7,9 9,2 87,1 3,7 237 - 0,0 0 994,5
03:15 9,9 7,8 9,1 86,7 3,7 242 - 0,0 0 994,5
03:14 9,9 7,7 9,1 85,9 3,9 246 - 0,0 0 994,5
03:13 9,9 7,7 9,1 85,9 4,3 247 - 0,0 0 994,5
03:12 9,9 7,7 9,1 85,9 4,4 248 - 0,0 0 994,5
03:11 9,9 7,7 9,1 86,2 4,5 250 - 0,0 0 994,6
03:10 9,9 7,8 9,1 86,8 4,6 252 - 0,0 0 994,5
03:09 9,9 7,7 9,1 85,9 4,5 254 - 0,0 0 994,6
03:08 9,9 7,7 9,1 85,9 4,7 257 - 0,0 0 994,6
03:07 9,9 7,7 9,1 85,9 5,0 262 - 0,0 0 994,6
03:06 10,0 7,9 9,3 87,0 5,1 266 - 0,0 0 994,6
03:05 10,0 7,8 9,2 85,9 5,1 270 - 0,0 0 994,7
03:04 10,0 7,8 9,2 85,9 4,9 272 - 0,0 0 994,6
03:03 10,2 8,1 9,4 86,8 5,0 274 - 0,0 0 994,6
03:02 10,1 8,1 9,4 87,1 4,9 274 - 0,0 0 994,7
03:01 10,0 7,8 9,2 86,2 4,8 274 - 0,0 0 994,7
03:00 9,9 7,5 9,0 84,9 5,0 274 - 0,0 0 994,7
 
02:59 9,9 7,5 8,9 84,8 5,4 271 - 0,0 0 994,7
02:58 10,0 7,6 9,1 85,2 5,5 269 - 0,0 0 994,7
02:57 10,0 7,7 9,1 85,4 5,7 267 - 0,0 0 994,7
02:56 10,0 7,7 9,1 85,6 5,6 267 - 0,0 0 994,7
02:55 10,0 7,6 9,1 85,0 5,4 267 - 0,0 0 994,7
02:54 10,0 7,6 9,0 84,8 5,3 267 - 0,0 0 994,7
02:53 10,0 7,6 9,0 84,8 5,2 267 - 0,0 0 994,7
02:52 10,0 7,6 9,1 85,2 5,0 269 - 0,0 0 994,7
02:51 10,0 7,7 9,1 85,4 5,0 271 - 0,0 0 994,7
02:50 10,1 7,8 9,2 85,6 5,1 273 - 0,0 0 994,7
02:49 10,0 7,6 9,1 84,9 5,3 273 - 0,0 0 994,7
02:48 9,9 7,5 8,9 84,8 5,6 271 - 0,0 0 994,7
02:47 10,0 7,6 9,1 85,1 5,7 270 - 0,0 0 994,7
02:46 10,0 7,8 9,2 85,9 5,6 268 - 0,0 0 994,7
02:45 10,1 7,9 9,3 85,9 5,5 264 - 0,0 0 994,7
02:44 10,1 7,9 9,3 85,9 5,5 261 - 0,0 0 994,7
02:43 10,0 7,8 9,2 85,9 5,4 260 - 0,0 0 994,7
02:42 10,0 7,8 9,2 85,9 5,5 261 - 0,0 0 994,7
02:41 10,0 7,8 9,2 85,9 5,6 263 - 0,0 0 994,7
02:40 10,0 7,8 9,2 85,9 5,9 266 - 0,0 0 994,7
02:39 10,0 7,8 9,2 85,9 5,8 269 - 0,0 0 994,7
02:38 10,0 7,8 9,2 85,9 5,8 271 - 0,0 0 994,7
02:37 10,0 7,8 9,2 85,9 5,9 271 - 0,0 0 994,6
02:36 10,0 7,6 9,1 85,1 6,1 270 - 0,0 0 994,7
02:35 10,1 8,1 9,4 87,1 5,9 266 - 0,0 0 994,7
02:34 10,1 8,0 9,3 86,7 5,1 264 - 0,0 0 994,7
02:33 10,0 7,8 9,2 85,9 5,0 263 - 0,0 0 994,7
02:32 10,1 7,9 9,3 85,9 5,6 263 - 0,0 0 994,7
02:31 10,1 7,9 9,3 85,9 6,1 263 - 0,0 0 994,7
02:30 10,1 7,9 9,3 85,9 6,1 263 - 0,0 0 994,7
02:29 10,1 7,8 9,2 85,6 6,1 263 - 0,0 0 994,7
02:28 10,1 7,7 9,1 84,8 6,2 262 - 0,0 0 994,7
02:27 10,1 7,8 9,2 85,6 6,4 261 - 0,0 0 994,7
02:26 10,1 7,9 9,3 85,9 6,4 259 - 0,0 0 994,7
02:25 10,1 7,7 9,2 84,9 6,4 259 - 0,0 0 994,7
02:24 10,0 7,6 9,0 84,8 6,3 260 - 0,0 0 994,7
02:23 10,0 7,6 9,1 85,2 6,2 262 - 0,0 0 994,7
02:22 10,0 7,7 9,1 85,4 5,9 263 - 0,0 0 994,8
02:21 9,9 7,5 8,9 84,8 5,6 265 - 0,0 0 994,8
02:20 9,8 7,5 8,9 85,7 5,4 266 - 0,0 0 994,7
02:19 9,8 7,4 8,9 84,9 5,1 267 - 0,0 0 994,8
02:18 9,7 7,4 8,8 85,4 4,8 266 - 0,0 0 994,8
02:17 9,7 7,7 9,0 87,1 4,6 266 - 0,0 0 994,8
02:16 9,5 7,5 8,8 87,1 4,8 266 - 0,0 0 994,8
02:15 9,4 7,5 8,7 88,0 4,9 265 - 0,0 0 994,8
02:14 9,2 7,5 8,7 89,3 4,9 266 - 0,0 0 994,9
02:13 9,1 7,7 8,7 90,9 4,8 267 - 0,0 0 994,8
02:12 8,9 7,7 8,6 92,0 4,5 266 - 0,0 0 994,9
02:11 8,5 7,3 8,2 92,0 3,7 265 - 0,0 0 994,9
02:10 8,3 7,1 8,0 92,0 2,7 262 - 0,0 0 995,0
02:09 8,3 7,1 8,0 92,0 2,0 256 - 0,0 0 995,0
02:08 8,3 7,1 8,0 92,0 1,7 245 - 0,0 0 995,0
02:07 8,3 7,1 8,0 92,0 1,5 233 - 0,0 0 995,0
02:06 8,2 7,0 7,9 92,0 1,5 226 - 0,0 0 995,0
02:05 8,2 7,0 7,9 92,0 1,6 223 - 0,0 0 995,0
02:04 8,2 7,0 7,9 92,0 1,9 221 - 0,0 0 995,0
02:03 8,2 7,0 7,9 92,0 2,0 218 - 0,0 0 995,0
02:02 8,2 7,0 7,9 92,0 2,0 216 - 0,0 0 995,0
02:01 8,2 7,0 7,9 92,0 1,8 213 - 0,0 0 995,1
02:00 8,2 7,0 7,9 92,0 1,4 208 - 0,0 0 995,1
 
01:59 8,2 7,0 7,9 92,0 1,1 202 - 0,0 0 995,0
01:58 8,2 7,0 7,9 92,0 1,0 182 - 0,0 0 995,0
01:57 8,2 7,0 7,9 92,1 1,3 200 - 0,0 0 995,1
01:56 8,2 7,1 8,0 93,1 1,5 196 - 0,0 0 995,0
01:55 8,2 7,2 8,0 93,2 2,1 198 - 0,0 0 995,1
01:54 8,2 7,2 8,0 93,2 1,8 194 - 0,0 0 995,1
01:53 8,2 7,2 8,0 93,2 1,8 221 - 0,0 0 995,1
01:52 8,1 7,1 7,9 93,2 2,1 198 - 0,0 0 995,1
01:51 8,1 7,1 7,9 93,2 1,7 211 - 0,0 0 995,1
01:50 8,1 7,1 7,9 93,2 2,1 204 - 0,0 0 995,1
01:49 8,1 7,1 7,9 93,2 2,6 231 - 0,0 0 995,1
01:48 8,1 7,1 7,9 93,2 2,3 213 - 0,0 0 995,1
01:47 8,0 7,0 7,8 93,2 2,3 202 - 0,0 0 995,1
01:46 8,0 7,0 7,8 93,2 1,9 223 - 0,0 0 995,2
01:45 8,0 7,0 7,8 93,2 1,3 209 - 0,0 0 995,1
01:44 7,9 6,9 7,6 93,2 1,2 209 - 0,0 0 995,1